GW6089 Weather Reports


time (UTC)temp
C
wind
direction
speed
KPH
gust
KPH
rain 1hr
cm
rain 24hr
cm
rain mn
cm
humidity
%
barometer
mb
20260509032706 21 267 4.8 14.5 0.00 0.00 0.00 58 1019.2
20260509032606 21 266 3.2 14.5 0.00 0.00 0.00 58 1019.2
20260509032506 21 259 3.2 14.5 0.00 0.00 0.00 58 1019.2
20260509032420 21 257 3.2 12.9 0.00 0.00 0.00 58 1019.2
20260509032405 21 255 3.2 12.9 0.00 0.00 0.00 58 1019.1
20260509032321 21 251 3.2 12.9 0.00 0.00 0.00 59 1019.1
20260509032306 21 253 3.2 12.9 0.00 0.00 0.00 59 1019.5
20260509032006 21 242 3.2 12.9 0.00 0.00 0.00 59 1019.2
20260509031905 21 236 3.2 12.9 0.00 0.00 0.00 59 1018.8
20260509031805 21 231 3.2 12.9 0.00 0.00 0.00 59 1019.1
20260509031720 21 227 3.2 12.9 0.00 0.00 0.00 59 1019.1
20260509031706 21 226 3.2 12.9 0.00 0.00 0.00 58 1019.0
20260509031604 21 230 3.2 12.9 0.00 0.00 0.00 59 1019.4
20260509031406 21 251 3.2 9.7 0.00 0.00 0.00 59 1019.2
20260509031304 21 248 3.2 11.3 0.00 0.00 0.00 59 1019.1
20260509031219 21 248 3.2 11.3 0.00 0.00 0.00 59 1019.1
20260509031206 21 248 3.2 11.3 0.00 0.00 0.00 59 1019.2
20260509031106 21 247 3.2 11.3 0.00 0.00 0.00 59 1019.2
20260509030906 21 269 3.2 11.3 0.00 0.00 0.00 59 1019.1
20260509030805 21 270 4.8 11.3 0.00 0.00 0.00 59 1019.1
20260509030706 21 269 4.8 11.3 0.00 0.00 0.00 60 1019.3
20260509030606 21 263 4.8 11.3 0.00 0.00 0.00 60 1019.3
20260509030506 21 253 4.8 11.3 0.00 0.00 0.00 60 1019.4
20260509030406 21 248 4.8 11.3 0.00 0.00 0.00 60 1019.2
20260509030306 21 241 4.8 11.3 0.00 0.00 0.00 60 1019.3
20260509030206 21 238 4.8 11.3 0.00 0.00 0.00 60 1019.4
20260509030120 21 238 3.2 11.3 0.00 0.00 0.00 60 1019.4
20260509030106 21 238 3.2 11.3 0.00 0.00 0.00 60 1019.3
20260509030020 21 231 3.2 11.3 0.00 0.00 0.00 60 1019.3
20260509030005 21 227 3.2 11.3 0.00 0.00 0.00 60 1019.3
20260509025706 21 212 3.2 9.7 0.00 0.00 0.00 60 1019.3
20260509025606 21 210 3.2 9.7 0.00 0.00 0.00 60 1019.3
20260509025506 21 207 3.2 9.7 0.00 0.00 0.00 60 1019.3
20260509025321 21 210 3.2 9.7 0.00 0.00 0.00 60 1019.1
20260509025306 21 212 3.2 9.7 0.00 0.00 0.00 60 1019.3
20260509025206 21 211 3.2 9.7 0.00 0.00 0.00 60 1019.4
20260509025005 21 208 3.2 9.7 0.00 0.00 0.00 60 1019.5
20260509024905 21 202 3.2 9.7 0.00 0.00 0.00 60 1019.2
20260509024805 20 199 3.2 9.7 0.00 0.00 0.00 60 1019.4
20260509024705 20 193 1.6 9.7 0.00 0.00 0.00 60 1019.3
20260509024605 20 196 3.2 9.7 0.00 0.00 0.00 60 1019.4
20260509024519 20 199 3.2 9.7 0.00 0.00 0.00 60 1019.4
20260509024506 20 209 3.2 9.7 0.00 0.00 0.00 60 1019.5
20260509024406 20 1 3.2 9.7 0.00 0.00 0.00 60 1019.3
20260509024206 20 337 3.2 17.7 0.00 0.00 0.00 61 1019.3
20260509024106 20 326 4.8 17.7 0.00 0.00 0.00 61 1019.3
20260509024005 20 319 4.8 17.7 0.00 0.00 0.00 61 1019.4
20260509023921 20 315 4.8 17.7 0.00 0.00 0.00 61 1019.4
20260509023906 20 314 4.8 17.7 0.00 0.00 0.00 61 1019.4
20260509023806 20 309 4.8 17.7 0.00 0.00 0.00 61 1019.4
20260509023606 20 289 4.8 17.7 0.00 0.00 0.00 61 1019.7
20260509023504 20 274 4.8 17.7 0.00 0.00 0.00 61 1019.4
20260509023405 20 263 3.2 17.7 0.00 0.00 0.00 61 1019.3
20260509023305 20 246 3.2 11.3 0.00 0.00 0.00 62 1019.5
20260509023206 20 236 3.2 9.7 0.00 0.00 0.00 61 1019.3
20260509023106 20 236 3.2 9.7 0.00 0.00 0.00 62 1019.7
20260509023005 20 237 3.2 9.7 0.00 0.00 0.00 61 1019.4
20260509022904 20 236 3.2 9.7 0.00 0.00 0.00 61 1019.5
20260509022805 20 230 3.2 9.7 0.00 0.00 0.00 62 1019.7
20260509022720 20 227 3.2 12.9 0.00 0.00 0.00 62 1019.7
20260509022705 20 227 3.2 14.5 0.00 0.00 0.00 62 1019.7
20260509022606 20 225 4.8 14.5 0.00 0.00 0.00 61 1019.6
20260509022406 20 222 4.8 14.5 0.00 0.00 0.00 62 1019.7
20260509022307 20 220 4.8 14.5 0.00 0.00 0.00 62 1019.8
20260509022206 20 224 6.4 14.5 0.00 0.00 0.00 62 1019.6
20260509022106 20 224 6.4 14.5 0.00 0.00 0.00 62 1019.8
20260509022006 20 224 6.4 14.5 0.00 0.00 0.00 62 1019.5
20260509021906 20 224 6.4 14.5 0.00 0.00 0.00 62 1020.0
20260509021806 20 225 6.4 14.5 0.00 0.00 0.00 62 1019.6
20260509021720 20 227 6.4 14.5 0.00 0.00 0.00 62 1019.6
20260509021704 20 228 6.4 14.5 0.00 0.00 0.00 62 1019.9
20260509021606 20 231 4.8 14.5 0.00 0.00 0.00 63 1020.1
20260509021406 20 228 4.8 14.5 0.00 0.00 0.00 63 1019.7
20260509021306 20 230 4.8 14.5 0.00 0.00 0.00 63 1020.0
20260509021205 20 229 4.8 11.3 0.00 0.00 0.00 63 1020.0
20260509021120 20 226 4.8 11.3 0.00 0.00 0.00 63 1020.0
20260509021105 20 227 4.8 11.3 0.00 0.00 0.00 63 1020.0
20260509021020 20 230 4.8 11.3 0.00 0.00 0.00 63 1020.0
20260509021006 20 231 4.8 11.3 0.00 0.00 0.00 63 1020.0
20260509020706 20 245 3.2 11.3 0.00 0.00 0.00 63 1020.1
20260509020606 19 244 3.2 11.3 0.00 0.00 0.00 63 1019.9
20260509020506 19 245 3.2 11.3 0.00 0.00 0.00 63 1019.9
20260509020406 19 257 3.2 9.7 0.00 0.00 0.00 63 1020.1
20260509020320 19 264 3.2 9.7 0.00 0.00 0.00 64 1020.1
20260509020306 19 268 3.2 9.7 0.00 0.00 0.00 64 1020.0
20260509020206 19 282 3.2 12.9 0.00 0.00 0.00 64 1019.9
20260509020119 19 286 3.2 12.9 0.00 0.00 0.00 64 1019.9
20260509020006 19 275 3.2 12.9 0.00 0.00 0.00 64 1019.9
20260509015806 19 276 3.2 12.9 0.00 0.00 0.00 64 1020.1
20260509015705 19 265 3.2 12.9 0.00 0.00 0.00 64 1019.9
20260509015605 19 256 4.8 12.9 0.00 0.00 0.00 64 1020.3
20260509015519 19 259 4.8 12.9 0.00 0.00 0.00 64 1020.3
20260509015505 19 258 4.8 12.9 0.00 0.00 0.00 64 1019.7
20260509015405 19 248 4.8 12.9 0.00 0.00 0.00 64 1020.0
20260509015206 19 241 4.8 12.9 0.00 0.00 0.00 64 1020.1
20260509015105 19 242 4.8 12.9 0.00 0.00 0.00 64 1020.1
20260509015006 19 239 6.4 12.9 0.00 0.00 0.00 64 1020.0
20260509014904 19 234 6.4 12.9 0.00 0.00 0.00 64 1020.3
20260509014805 19 232 6.4 12.9 0.00 0.00 0.00 64 1020.1
20260509014706 19 230 6.4 12.9 0.00 0.00 0.00 64 1020.3
20260509014606 19 232 6.4 12.9 0.00 0.00 0.00 64 1020.3
20260509014505 19 229 6.4 12.9 0.00 0.00 0.00 64 1020.3
20260509014405 19 231 6.4 12.9 0.00 0.00 0.00 65 1020.0
20260509014306 19 226 4.8 12.9 0.00 0.00 0.00 65 1020.3
20260509014206 19 229 4.8 12.9 0.00 0.00 0.00 65 1020.3
20260509014106 19 229 4.8 12.9 0.00 0.00 0.00 65 1020.1
20260509014020 19 230 4.8 12.9 0.00 0.00 0.00 65 1020.1
20260509014006 19 230 4.8 12.9 0.00 0.00 0.00 65 1020.4
20260509013920 19 239 4.8 14.5 0.00 0.00 0.00 65 1020.4
20260509013906 19 239 4.8 14.5 0.00 0.00 0.00 65 1020.0
20260509013606 19 231 4.8 14.5 0.00 0.00 0.00 65 1020.3
20260509013505 19 236 4.8 14.5 0.00 0.00 0.00 65 1020.3
20260509013406 18 242 4.8 14.5 0.00 0.00 0.00 65 1020.3
20260509013306 19 245 4.8 14.5 0.00 0.00 0.00 65 1020.4
20260509013206 19 241 4.8 14.5 0.00 0.00 0.00 65 1020.4
20260509013106 19 233 4.8 20.9 0.00 0.00 0.00 65 1020.6
20260509013006 19 231 4.8 20.9 0.00 0.00 0.00 65 1020.4
20260509012906 19 222 6.4 20.9 0.00 0.00 0.00 65 1020.4
20260509012806 19 225 4.8 20.9 0.00 0.00 0.00 65 1020.5
20260509012705 19 232 4.8 20.9 0.00 0.00 0.00 65 1020.4
20260509012605 19 231 4.8 20.9 0.00 0.00 0.00 66 1020.5
20260509012504 19 232 4.8 20.9 0.00 0.00 0.00 66 1020.5
20260509012406 19 222 4.8 20.9 0.00 0.00 0.00 66 1020.5
20260509012307 19 218 4.8 20.9 0.00 0.00 0.00 65 1020.7
20260509012219 19 213 4.8 20.9 0.00 0.00 0.00 66 1020.7
20260509012206 19 213 4.8 20.9 0.00 0.00 0.00 66 1020.5
20260509012106 19 221 4.8 14.5 0.00 0.00 0.00 66 1020.7
20260509011904 19 211 4.8 14.5 0.00 0.00 0.00 66 1020.7
20260509011821 19 215 4.8 14.5 0.00 0.00 0.00 67 1020.7
20260509011806 19 216 4.8 14.5 0.00 0.00 0.00 67 1020.6
20260509011706 19 213 4.8 12.9 0.00 0.00 0.00 66 1020.6
20260509011521 19 211 4.8 12.9 0.00 0.00 0.00 67 1020.5
20260509011506 19 209 4.8 12.9 0.00 0.00 0.00 67 1020.7
20260509011406 19 213 4.8 12.9 0.00 0.00 0.00 67 1020.7
20260509011205 19 208 3.2 12.9 0.00 0.00 0.00 67 1020.7
20260509011105 19 214 3.2 12.9 0.00 0.00 0.00 67 1020.8
20260509011004 19 218 4.8 12.9 0.00 0.00 0.00 67 1020.7
20260509010906 18 230 4.8 17.7 0.00 0.00 0.00 68 1020.7
20260509010804 18 230 4.8 17.7 0.00 0.00 0.00 68 1020.7
20260509010706 18 224 6.4 17.7 0.00 0.00 0.00 68 1020.6
20260509010620 18 226 6.4 17.7 0.00 0.00 0.00 68 1020.6
20260509010606 18 226 6.4 17.7 0.00 0.00 0.00 68 1020.6
20260509010505 18 222 6.4 17.7 0.00 0.00 0.00 68 1020.8
20260509010305 18 225 6.4 17.7 0.00 0.00 0.00 68 1020.8
20260509010206 18 227 8.0 17.7 0.00 0.00 0.00 68 1020.6
20260509010106 18 222 8.0 17.7 0.00 0.00 0.00 68 1020.8
20260509010020 18 221 8.0 17.7 0.00 0.00 0.00 68 1020.8
20260509010006 18 221 8.0 17.7 0.00 0.00 0.00 68 1020.7
20260509005906 18 214 6.4 17.7 0.00 0.00 0.00 68 1020.8
20260509005706 18 212 6.4 16.1 0.00 0.00 0.00 68 1020.9
20260509005605 18 212 8.0 16.1 0.00 0.00 0.00 68 1020.8
20260509005506 18 215 6.4 16.1 0.00 0.00 0.00 69 1020.6
20260509005406 18 214 6.4 16.1 0.00 0.00 0.00 68 1020.6
20260509005306 18 218 6.4 16.1 0.00 0.00 0.00 68 1020.8
20260509005205 18 217 6.4 14.5 0.00 0.00 0.00 69 1020.6
20260509005105 18 222 6.4 16.1 0.00 0.00 0.00 69 1020.8
20260509005005 18 229 6.4 16.1 0.00 0.00 0.00 69 1020.9
20260509004906 18 236 8.0 16.1 0.00 0.00 0.00 69 1020.7
20260509004806 18 239 8.0 16.1 0.00 0.00 0.00 69 1020.6
20260509004705 18 243 6.4 16.1 0.00 0.00 0.00 69 1020.5
20260509004620 18 243 6.4 16.1 0.00 0.00 0.00 69 1020.5
20260509004605 18 245 6.4 16.1 0.00 0.00 0.00 69 1020.6
20260509004505 18 243 6.4 16.1 0.00 0.00 0.00 69 1020.7
20260509004307 18 242 6.4 16.1 0.00 0.00 0.00 69 1020.6
20260509004206 18 242 6.4 16.1 0.00 0.00 0.00 69 1020.8
20260509004106 18 241 6.4 16.1 0.00 0.00 0.00 70 1020.8
20260509004006 18 241 6.4 16.1 0.00 0.00 0.00 70 1020.7
20260509003905 18 239 6.4 16.1 0.00 0.00 0.00 70 1020.8
20260509003805 17 239 6.4 16.1 0.00 0.00 0.00 70 1020.6
20260509003719 17 241 6.4 16.1 0.00 0.00 0.00 70 1020.6
20260509003706 17 241 6.4 16.1 0.00 0.00 0.00 70 1020.8
20260509003606 17 243 6.4 16.1 0.00 0.00 0.00 70 1020.7
20260509003405 17 243 6.4 16.1 0.00 0.00 0.00 70 1020.9
20260509003320 17 246 6.4 16.1 0.00 0.00 0.00 70 1020.9
20260509003306 17 247 6.4 16.1 0.00 0.00 0.00 70 1020.8
20260509003205 17 246 6.4 16.1 0.00 0.00 0.00 70 1021.0
20260509003006 17 249 4.8 16.1 0.00 0.00 0.00 71 1021.1
20260509002905 17 251 4.8 16.1 0.00 0.00 0.00 71 1020.8
20260509002821 17 247 4.8 16.1 0.00 0.00 0.00 71 1020.8
20260509002805 17 246 4.8 16.1 0.00 0.00 0.00 71 1021.0
20260509002705 17 243 4.8 16.1 0.00 0.00 0.00 71 1021.1
20260509002620 17 242 4.8 16.1 0.00 0.00 0.00 71 1021.1
20260509002521 17 247 4.8 16.1 0.00 0.00 0.00 71 1020.8
20260509002505 17 247 4.8 16.1 0.00 0.00 0.00 71 1020.9
20260509002320 17 245 4.8 16.1 0.00 0.00 0.00 71 1021.1
20260509002220 17 248 4.8 14.5 0.00 0.00 0.00 71 1021.0
20260509002206 17 249 4.8 14.5 0.00 0.00 0.00 71 1021.0
20260509001904 17 245 4.8 14.5 0.00 0.00 0.00 71 1020.8
20260509001806 17 246 4.8 14.5 0.00 0.00 0.00 71 1020.9
20260509001705 17 239 4.8 14.5 0.00 0.00 0.00 71 1020.9
20260509001606 17 237 4.8 14.5 0.00 0.00 0.00 72 1020.9
20260509001505 17 228 3.2 14.5 0.00 0.00 0.00 72 1020.8
20260509001404 17 219 4.8 14.5 0.00 0.00 0.00 72 1020.9
20260509001305 17 209 4.8 14.5 0.00 0.00 0.00 72 1021.0
20260509001206 17 204 4.8 14.5 0.00 0.00 0.00 72 1020.8
20260509001106 17 213 4.8 14.5 0.00 0.00 0.00 72 1021.0
20260509001019 17 214 4.8 14.5 0.00 0.00 0.00 72 1021.0
20260509001005 17 213 4.8 14.5 0.00 0.00 0.00 72 1021.1
20260509000905 16 204 4.8 14.5 0.00 0.00 0.00 72 1021.0
20260509000705 16 192 4.8 12.9 0.00 0.00 0.00 72 1021.1
20260509000620 16 188 4.8 12.9 0.00 0.00 0.00 72 1021.1
20260509000605 16 188 4.8 12.9 0.00 0.00 0.00 72 1021.0
20260509000504 16 187 3.2 12.9 0.00 0.00 0.00 72 1020.9
20260509000305 16 224 3.2 12.9 0.00 0.00 0.00 73 1021.1
20260509000206 16 228 3.2 12.9 0.00 0.00 0.00 73 1020.9
20260509000106 16 219 3.2 11.3 0.00 0.00 0.00 73 1021.0
20260509000006 16 230 3.2 11.3 0.00 0.00 0.00 73 1020.9
20260508235906 16 244 3.2 11.3 0.00 0.00 0.00 73 1020.9
20260508235805 16 274 3.2 9.7 0.00 0.00 0.00 73 1021.1
20260508235721 16 275 3.2 9.7 0.00 0.00 0.00 73 1021.1
20260508235706 16 274 3.2 9.7 0.00 0.00 0.00 73 1021.0
20260508235607 16 272 3.2 9.7 0.00 0.00 0.00 73 1021.1
20260508235406 16 255 3.2 9.7 0.00 0.00 0.00 73 1020.9
20260508235307 16 255 3.2 9.7 0.00 0.00 0.00 73 1020.8
20260508235205 16 264 3.2 9.7 0.00 0.00 0.00 73 1020.9
20260508235106 16 258 3.2 11.3 0.00 0.00 0.00 74 1021.0
20260508235006 16 257 3.2 11.3 0.00 0.00 0.00 74 1020.9
20260508234906 16 264 3.2 11.3 0.00 0.00 0.00 74 1021.0
20260508234818 16 264 3.2 11.3 0.00 0.00 0.00 74 1021.0
20260508234806 16 265 3.2 11.3 0.00 0.00 0.00 74 1021.0
20260508234719 16 265 3.2 11.3 0.00 0.00 0.00 74 1021.0
20260508234706 16 267 3.2 11.3 0.00 0.00 0.00 74 1021.0
20260508234419 16 279 3.2 11.3 0.00 0.00 0.00 74 1020.9
20260508234405 16 280 3.2 11.3 0.00 0.00 0.00 74 1020.9
20260508234306 16 279 3.2 11.3 0.00 0.00 0.00 74 1020.7
20260508234220 16 276 3.2 11.3 0.00 0.00 0.00 74 1020.7
20260508234105 16 281 3.2 9.7 0.00 0.00 0.00 74 1020.8
20260508233920 15 247 3.2 9.7 0.00 0.00 0.00 74 1021.2
20260508233905 15 238 3.2 16.1 0.00 0.00 0.00 74 1021.0
20260508233806 15 222 3.2 16.1 0.00 0.00 0.00 75 1020.8
20260508233619 15 206 3.2 16.1 0.00 0.00 0.00 74 1020.8
20260508233606 15 207 3.2 16.1 0.00 0.00 0.00 74 1021.0
20260508233505 15 193 3.2 16.1 0.00 0.00 0.00 75 1020.9
20260508233306 15 182 3.2 16.1 0.00 0.00 0.00 75 1020.9
20260508233206 15 185 3.2 16.1 0.00 0.00 0.00 75 1020.9
20260508233106 15 185 3.2 16.1 0.00 0.00 0.00 75 1020.8
20260508232905 15 179 1.6 16.1 0.00 0.00 0.00 76 1020.7
20260508232805 15 164 1.6 6.4 0.00 0.00 0.00 75 1020.9
20260508232705 15 163 1.6 6.4 0.00 0.00 0.00 75 1020.8
20260508232605 15 173 1.6 6.4 0.00 0.00 0.00 75 1020.9
20260508232505 15 183 1.6 6.4 0.00 0.00 0.00 76 1021.0
20260508232406 15 188 1.6 6.4 0.00 0.00 0.00 76 1021.1
20260508232307 15 193 1.6 6.4 0.00 0.00 0.00 76 1021.0
20260508232206 15 196 1.6 6.4 0.00 0.00 0.00 76 1021.0
20260508232105 15 210 1.6 6.4 0.00 0.00 0.00 76 1020.9
20260508232006 15 231 1.6 6.4 0.00 0.00 0.00 76 1021.1
20260508231920 15 235 3.2 9.7 0.00 0.00 0.00 76 1021.1
20260508231905 15 234 3.2 9.7 0.00 0.00 0.00 76 1021.0
20260508231806 15 243 3.2 9.7 0.00 0.00 0.00 76 1021.0
20260508231606 15 246 3.2 11.3 0.00 0.00 0.00 76 1021.0
20260508231506 15 239 3.2 11.3 0.00 0.00 0.00 76 1020.8
20260508231405 14 234 3.2 11.3 0.00 0.00 0.00 76 1021.0
20260508231306 14 230 3.2 11.3 0.00 0.00 0.00 76 1021.0
20260508231220 14 232 3.2 11.3 0.00 0.00 0.00 76 1021.0
20260508231205 14 235 3.2 11.3 0.00 0.00 0.00 76 1020.7
20260508231106 14 232 3.2 11.3 0.00 0.00 0.00 77 1020.9
20260508231019 14 230 3.2 11.3 0.00 0.00 0.00 77 1020.9
20260508230905 14 242 3.2 11.3 0.00 0.00 0.00 77 1020.8
20260508230820 14 244 3.2 11.3 0.00 0.00 0.00 77 1020.8
20260508230704 14 240 3.2 11.3 0.00 0.00 0.00 77 1020.7
20260508230520 14 251 3.2 11.3 0.00 0.00 0.00 77 1020.8
20260508230504 14 253 3.2 11.3 0.00 0.00 0.00 77 1020.8
20260508230405 13 256 3.2 11.3 0.00 0.00 0.00 77 1020.7
20260508230319 13 261 3.2 11.3 0.00 0.00 0.00 77 1020.7
20260508230205 13 265 3.2 11.3 0.00 0.00 0.00 77 1020.6
20260508230006 13 260 3.2 11.3 0.00 0.00 0.00 77 1020.9
20260508225906 13 254 3.2 11.3 0.00 0.00 0.00 77 1020.9
20260508225806 13 254 3.2 11.3 0.00 0.00 0.00 77 1020.9
20260508225705 13 256 3.2 11.3 0.00 0.00 0.00 77 1020.7
20260508225619 13 260 1.6 6.4 0.00 0.00 0.00 77 1020.7
20260508225606 13 259 1.6 6.4 0.00 0.00 0.00 77 1020.7
20260508225522 13 260 1.6 6.4 0.00 0.00 0.00 78 1020.7
20260508225505 13 260 1.6 6.4 0.00 0.00 0.00 78 1020.8
20260508225321 13 265 1.6 6.4 0.00 0.00 0.00 78 1020.7
20260508225207 13 253 1.6 6.4 0.00 0.00 0.00 78 1020.8
20260508225006 13 250 1.6 3.2 0.00 0.00 0.00 78 1020.8
20260508224906 13 250 0.0 3.2 0.00 0.00 0.00 78 1020.9
20260508224805 13 250 0.0 3.2 0.00 0.00 0.00 78 1020.5
20260508224706 13 250 0.0 3.2 0.00 0.00 0.00 78 1020.9
20260508224621 13 250 0.0 3.2 0.00 0.00 0.00 78 1020.9
20260508224606 13 250 0.0 3.2 0.00 0.00 0.00 78 1020.6
20260508224520 13 250 0.0 3.2 0.00 0.00 0.00 78 1020.6
20260508224505 13 250 0.0 3.2 0.00 0.00 0.00 78 1020.6
20260508224205 13 250 0.0 3.2 0.00 0.00 0.00 78 1020.7
20260508224106 12 250 0.0 4.8 0.00 0.00 0.00 79 1020.7
20260508224006 12 245 1.6 9.7 0.00 0.00 0.00 79 1020.5
20260508223906 12 243 1.6 9.7 0.00 0.00 0.00 79 1020.6
20260508223806 12 241 1.6 9.7 0.00 0.00 0.00 79 1020.6
20260508223706 12 239 1.6 9.7 0.00 0.00 0.00 79 1020.8
20260508223605 12 238 1.6 9.7 0.00 0.00 0.00 79 1020.7
20260508223504 12 237 1.6 9.7 0.00 0.00 0.00 79 1020.5
20260508223405 12 236 1.6 9.7 0.00 0.00 0.00 79 1020.7
20260508223321 12 236 1.6 9.7 0.00 0.00 0.00 79 1020.7
20260508223305 12 236 1.6 9.7 0.00 0.00 0.00 79 1020.5
20260508223206 12 234 1.6 9.7 0.00 0.00 0.00 79 1020.8
20260508223007 12 231 1.6 4.8 0.00 0.00 0.00 79 1020.7
20260508222906 12 230 1.6 4.8 0.00 0.00 0.00 79 1020.7
20260508222820 12 230 1.6 4.8 0.00 0.00 0.00 79 1020.7
20260508222806 12 230 1.6 4.8 0.00 0.00 0.00 79 1020.4
20260508222720 12 230 1.6 4.8 0.00 0.00 0.00 79 1020.4
20260508222704 12 230 1.6 4.8 0.00 0.00 0.00 79 1020.5
20260508222405 12 230 1.6 4.8 0.00 0.00 0.00 79 1020.6
20260508222306 12 230 1.6 4.8 0.00 0.00 0.00 79 1020.1
20260508222205 12 230 1.6 4.8 0.00 0.00 0.00 79 1020.3
20260508222106 12 230 1.6 4.8 0.00 0.00 0.00 79 1020.3
20260508222006 12 229 1.6 4.8 0.00 0.00 0.00 79 1020.1
20260508221906 11 229 1.6 4.8 0.00 0.00 0.00 79 1020.3
20260508221804 11 229 1.6 4.8 0.00 0.00 0.00 79 1020.3
20260508221706 11 229 0.0 3.2 0.00 0.00 0.00 79 1020.3
20260508221605 11 229 0.0 3.2 0.00 0.00 0.00 79 1020.0
20260508221505 11 229 0.0 3.2 0.00 0.00 0.00 79 1020.1
20260508221405 11 229 0.0 1.6 0.00 0.00 0.00 79 1020.1
20260508221306 11 229 0.0 3.2 0.00 0.00 0.00 79 1020.1
20260508221206 11 229 0.0 3.2 0.00 0.00 0.00 79 1020.0
20260508221105 11 229 0.0 3.2 0.00 0.00 0.00 79 1020.1
20260508221019 11 229 1.6 3.2 0.00 0.00 0.00 79 1020.1
20260508221006 11 229 1.6 3.2 0.00 0.00 0.00 79 1020.0
20260508220905 11 229 1.6 3.2 0.00 0.00 0.00 79 1020.0
20260508220706 11 229 1.6 3.2 0.00 0.00 0.00 79 1019.8
20260508220606 11 229 0.0 3.2 0.00 0.00 0.00 79 1020.0
20260508220506 11 229 0.0 3.2 0.00 0.00 0.00 79 1019.8
20260508220420 11 229 0.0 3.2 0.00 0.00 0.00 79 1019.8
20260508220406 11 229 0.0 3.2 0.00 0.00 0.00 79 1020.0
20260508220305 11 229 0.0 3.2 0.00 0.00 0.00 79 1020.1
20260508220105 11 229 0.0 3.2 0.00 0.00 0.00 79 1019.8
20260508220004 11 229 0.0 1.6 0.00 0.00 0.00 79 1019.7
20260508215906 11 229 0.0 1.6 0.00 0.00 0.00 79 1019.6
20260508215806 11 229 0.0 1.6 0.00 0.00 0.00 79 1020.0
20260508215706 11 229 0.0 1.6 0.00 0.00 0.00 79 1019.8
20260508215606 11 229 0.0 1.6 0.00 0.00 0.00 79 1019.7
20260508215504 11 229 0.0 1.6 0.00 0.00 0.00 79 1019.9
20260508215406 11 229 0.0 1.6 0.00 0.00 0.00 79 1020.0
20260508215307 11 229 0.0 1.6 0.00 0.00 0.00 79 1020.1
20260508215206 11 229 0.0 1.6 0.00 0.00 0.00 79 1020.0
20260508215104 11 229 0.0 3.2 0.00 0.00 0.00 79 1019.8
20260508215006 11 222 0.0 3.2 0.00 0.00 0.00 79 1019.9
20260508214904 11 221 0.0 3.2 0.00 0.00 0.00 79 1019.8
20260508214806 11 220 0.0 3.2 0.00 0.00 0.00 79 1020.0
20260508214706 11 213 0.0 3.2 0.00 0.00 0.00 79 1019.8
20260508214606 11 210 0.0 3.2 0.00 0.00 0.00 79 1019.8
20260508214506 11 209 0.0 3.2 0.00 0.00 0.00 79 1019.8
20260508214406 11 207 0.0 3.2 0.00 0.00 0.00 79 1019.9
20260508214319 11 203 0.0 3.2 0.00 0.00 0.00 79 1019.9
20260508214306 11 202 0.0 3.2 0.00 0.00 0.00 79 1019.8
20260508214206 10 198 0.0 3.2 0.00 0.00 0.00 79 1019.8
20260508214004 10 185 0.0 1.6 0.00 0.00 0.00 79 1019.6
20260508213906 10 185 0.0 1.6 0.00 0.00 0.00 79 1020.0
20260508213805 10 185 0.0 1.6 0.00 0.00 0.00 79 1019.9
20260508213720 10 185 0.0 1.6 0.00 0.00 0.00 79 1019.9
20260508213704 10 185 0.0 1.6 0.00 0.00 0.00 79 1019.7
20260508213619 10 185 0.0 1.6 0.00 0.00 0.00 79 1019.7
20260508213605 10 185 0.0 1.6 0.00 0.00 0.00 79 1019.6
20260508213420 10 185 0.0 1.6 0.00 0.00 0.00 79 1019.7
20260508213306 10 185 0.0 1.6 0.00 0.00 0.00 79 1019.8
20260508213105 10 185 0.0 1.6 0.00 0.00 0.00 79 1019.7
20260508213005 10 185 0.0 1.6 0.00 0.00 0.00 79 1019.9
20260508212921 10 185 0.0 1.6 0.00 0.00 0.00 79 1019.9
20260508212906 10 185 0.0 1.6 0.00 0.00 0.00 79 1019.8
20260508212806 10 185 0.0 1.6 0.00 0.00 0.00 79 1019.7
20260508212605 10 185 0.0 1.6 0.00 0.00 0.00 79 1019.6
20260508212519 10 185 0.0 1.6 0.00 0.00 0.00 79 1019.6
20260508212506 10 0 0.0 0.0 0.00 0.00 0.00 79 1019.8
20260508212206 10 0 0.0 0.0 0.00 0.00 0.00 79 1019.6
20260508212120 10 0 0.0 0.0 0.00 0.00 0.00 79 1019.6
20260508212106 10 0 0.0 0.0 0.00 0.00 0.00 79 1019.5
20260508212006 10 0 0.0 0.0 0.00 0.00 0.00 79 1019.6
20260508211806 10 197 0.0 3.2 0.00 0.00 0.00 79 1019.7
20260508211707 10 197 0.0 3.2 0.00 0.00 0.00 79 1019.6
20260508211606 10 197 0.0 3.2 0.00 0.00 0.00 79 1019.7
20260508211505 10 197 0.0 3.2 0.00 0.00 0.00 79 1019.5
20260508211406 10 197 0.0 3.2 0.00 0.00 0.00 79 1019.7
20260508211306 10 197 0.0 6.4 0.00 0.00 0.00 79 1019.5
20260508211205 10 194 1.6 6.4 0.00 0.00 0.00 79 1019.4
20260508211120 10 193 1.6 6.4 0.00 0.00 0.00 79 1019.4
20260508211105 10 193 1.6 6.4 0.00 0.00 0.00 79 1019.6
20260508211005 10 192 1.6 6.4 0.00 0.00 0.00 79 1019.5
20260508210919 10 192 1.6 6.4 0.00 0.00 0.00 79 1019.5
20260508210805 10 190 1.6 6.4 0.00 0.00 0.00 79 1019.4
20260508210605 10 189 1.6 6.4 0.00 0.00 0.00 79 1019.7
20260508210506 10 188 1.6 6.4 0.00 0.00 0.00 79 1019.5
20260508210406 10 187 1.6 6.4 0.00 0.00 0.00 79 1019.5
20260508210305 10 186 1.6 6.4 0.00 0.00 0.00 79 1019.5
20260508210206 10 186 1.6 4.8 0.00 0.00 0.00 79 1019.6
20260508210106 9 185 1.6 4.8 0.00 0.00 0.00 79 1019.8
20260508210006 9 185 1.6 4.8 0.00 0.00 0.00 79 1019.3
20260508205906 9 185 1.6 4.8 0.00 0.00 0.00 79 1019.7
20260508205805 9 185 1.6 4.8 0.00 0.00 0.00 79 1019.4
20260508205720 9 185 1.6 4.8 0.00 0.00 0.00 79 1019.4
20260508205705 9 185 1.6 3.2 0.00 0.00 0.00 79 1019.7
20260508205621 9 185 1.6 3.2 0.00 0.00 0.00 79 1019.7
20260508205605 9 185 1.6 3.2 0.00 0.00 0.00 79 1019.8
20260508205521 9 185 1.6 3.2 0.00 0.00 0.00 79 1019.8
20260508205206 9 185 1.6 1.6 0.00 0.00 0.00 79 1019.6
20260508205120 9 185 1.6 1.6 0.00 0.00 0.00 79 1019.6
20260508205105 9 185 1.6 1.6 0.00 0.00 0.00 79 1019.5
20260508205005 9 185 1.6 1.6 0.00 0.00 0.00 79 1019.5
20260508204805 9 185 1.6 1.6 0.00 0.00 0.00 79 1019.4
20260508204705 9 185 1.6 1.6 0.00 0.00 0.00 79 1019.1
20260508204606 9 185 1.6 1.6 0.00 0.00 0.00 79 1019.3
20260508204506 9 185 1.6 1.6 0.00 0.00 0.00 79 1019.3
20260508204405 9 185 1.6 1.6 0.00 0.00 0.00 78 1019.2
20260508204306 9 185 1.6 1.6 0.00 0.00 0.00 78 1019.3
20260508204221 9 185 1.6 1.6 0.00 0.00 0.00 78 1019.3
20260508204206 9 185 1.6 1.6 0.00 0.00 0.00 78 1019.1
20260508204106 9 185 1.6 1.6 0.00 0.00 0.00 78 1019.1
20260508203906 9 185 0.0 1.6 0.00 0.00 0.00 78 1019.3
20260508203806 9 185 0.0 1.6 0.00 0.00 0.00 78 1019.2
20260508203721 9 185 0.0 1.6 0.00 0.00 0.00 78 1019.2
20260508203705 9 185 0.0 1.6 0.00 0.00 0.00 78 1019.1
20260508203605 9 185 0.0 1.6 0.00 0.00 0.00 78 1019.2
20260508203405 9 185 0.0 1.6 0.00 0.00 0.00 78 1019.2
20260508203305 9 0 0.0 0.0 0.00 0.00 0.00 78 1019.1
20260508203205 9 0 0.0 0.0 0.00 0.00 0.00 78 1019.2
20260508203104 9 0 0.0 0.0 0.00 0.00 0.00 78 1019.0
20260508203006 9 0 0.0 0.0 0.00 0.00 0.00 78 1018.8
20260508202906 9 0 0.0 0.0 0.00 0.00 0.00 78 1019.1
20260508202806 9 0 0.0 0.0 0.00 0.00 0.00 78 1019.1
20260508202705 9 0 0.0 0.0 0.00 0.00 0.00 78 1019.1
20260508202606 9 0 0.0 0.0 0.00 0.00 0.00 78 1019.1
20260508202521 9 0 0.0 0.0 0.00 0.00 0.00 78 1019.1
20260508202506 9 0 0.0 0.0 0.00 0.00 0.00 78 1019.0
20260508202406 9 0 0.0 0.0 0.00 0.00 0.00 78 1018.8
20260508202320 9 0 0.0 0.0 0.00 0.00 0.00 78 1018.8
20260508202205 9 0 0.0 0.0 0.00 0.00 0.00 78 1019.1
20260508202119 9 0 0.0 0.0 0.00 0.00 0.00 78 1019.1
20260508202004 9 0 0.0 0.0 0.00 0.00 0.00 78 1019.0
20260508201805 9 0 0.0 0.0 0.00 0.00 0.00 78 1018.8
20260508201705 9 0 0.0 0.0 0.00 0.00 0.00 78 1019.0
20260508201606 9 0 0.0 0.0 0.00 0.00 0.00 78 1018.9
20260508201506 9 0 0.0 0.0 0.00 0.00 0.00 78 1018.8
20260508201405 9 0 0.0 0.0 0.00 0.00 0.00 78 1018.7
20260508201305 9 0 0.0 0.0 0.00 0.00 0.00 78 1018.8
20260508201205 9 0 0.0 0.0 0.00 0.00 0.00 78 1018.7
20260508201119 9 185 0.0 1.6 0.00 0.00 0.00 78 1018.7
20260508201105 9 185 0.0 1.6 0.00 0.00 0.00 78 1018.7
20260508201004 9 185 0.0 1.6 0.00 0.00 0.00 78 1018.8
20260508200918 9 185 0.0 1.6 0.00 0.00 0.00 78 1018.8
20260508200805 9 185 0.0 1.6 0.00 0.00 0.00 78 1018.7
20260508200605 9 185 0.0 1.6 0.00 0.00 0.00 78 1018.9
20260508200505 9 185 0.0 1.6 0.00 0.00 0.00 78 1018.6
20260508200404 9 185 0.0 1.6 0.00 0.00 0.00 78 1018.6
20260508200305 9 185 0.0 1.6 0.00 0.00 0.00 78 1018.8
20260508200205 9 185 0.0 1.6 0.00 0.00 0.00 78 1018.6
20260508200105 9 185 0.0 1.6 0.00 0.00 0.00 78 1018.8
20260508200004 9 185 0.0 1.6 0.00 0.00 0.00 78 1018.7
20260508195906 9 185 0.0 1.6 0.00 0.00 0.00 78 1018.5
20260508195806 9 185 0.0 1.6 0.00 0.00 0.00 78 1018.5
20260508195705 9 185 1.6 1.6 0.00 0.00 0.00 78 1018.6
20260508195620 9 185 1.6 3.2 0.00 0.00 0.00 78 1018.6
20260508195606 9 185 1.6 3.2 0.00 0.00 0.00 78 1018.8
20260508195506 9 185 1.6 3.2 0.00 0.00 0.00 78 1018.7
20260508195306 9 185 1.6 3.2 0.00 0.00 0.00 78 1018.7
20260508195205 9 185 1.6 3.2 0.00 0.00 0.00 78 1018.6
20260508195106 9 185 1.6 3.2 0.00 0.00 0.00 78 1018.6
20260508195005 9 185 1.6 3.2 0.00 0.00 0.00 78 1018.7
20260508194906 9 185 1.6 3.2 0.00 0.00 0.00 78 1018.6
20260508194805 9 185 1.6 3.2 0.00 0.00 0.00 78 1018.5
20260508194705 9 185 1.6 3.2 0.00 0.00 0.00 78 1018.6
20260508194605 9 185 1.6 3.2 0.00 0.00 0.00 78 1018.4
20260508194504 9 184 1.6 4.8 0.00 0.00 0.00 78 1018.5
20260508194405 9 184 1.6 4.8 0.00 0.00 0.00 78 1018.6
20260508194305 9 184 1.6 4.8 0.00 0.00 0.00 78 1018.6
20260508194205 9 183 1.6 4.8 0.00 0.00 0.00 78 1018.6
20260508194105 9 183 1.6 4.8 0.00 0.00 0.00 78 1018.6
20260508194006 9 183 1.6 4.8 0.00 0.00 0.00 78 1018.5
20260508193906 9 182 1.6 4.8 0.00 0.00 0.00 78 1018.3
20260508193805 9 182 1.6 4.8 0.00 0.00 0.00 78 1018.3
20260508193706 9 182 1.6 4.8 0.00 0.00 0.00 78 1018.1
20260508193604 9 181 1.6 4.8 0.00 0.00 0.00 78 1018.4
20260508193506 9 181 1.6 3.2 0.00 0.00 0.00 78 1018.3
20260508193406 9 181 1.6 3.2 0.00 0.00 0.00 78 1018.2
20260508193305 9 181 1.6 3.2 0.00 0.00 0.00 78 1018.5
20260508193205 9 180 1.6 6.4 0.00 0.00 0.00 78 1018.3
20260508193106 9 176 1.6 6.4 0.00 0.00 0.00 78 1018.5
20260508193006 9 171 1.6 6.4 0.00 0.00 0.00 78 1018.2
20260508192906 9 167 1.6 6.4 0.00 0.00 0.00 78 1018.3
20260508192807 9 161 1.6 6.4 0.00 0.00 0.00 78 1018.4
20260508192706 9 158 1.6 6.4 0.00 0.00 0.00 78 1018.4
20260508192606 9 155 1.6 6.4 0.00 0.00 0.00 78 1018.2
20260508192506 9 154 1.6 6.4 0.00 0.00 0.00 78 1018.0
20260508192406 9 149 1.6 6.4 0.00 0.00 0.00 78 1018.5
20260508192306 9 145 1.6 6.4 0.00 0.00 0.00 78 1018.4
20260508192221 9 141 1.6 6.4 0.00 0.00 0.00 78 1018.4
20260508192205 9 140 1.6 4.8 0.00 0.00 0.00 78 1018.2
20260508192105 9 139 1.6 4.8 0.00 0.00 0.00 78 1018.2
20260508191906 9 136 1.6 4.8 0.00 0.00 0.00 78 1018.4
20260508191804 9 134 1.6 4.8 0.00 0.00 0.00 78 1018.3
20260508191706 9 133 1.6 4.8 0.00 0.00 0.00 78 1018.0
20260508191606 9 130 1.6 3.2 0.00 0.00 0.00 78 1018.3
20260508191506 9 129 1.6 3.2 0.00 0.00 0.00 78 1018.3
20260508191405 9 127 1.6 3.2 0.00 0.00 0.00 78 1018.3
20260508191305 9 125 1.6 3.2 0.00 0.00 0.00 78 1018.0
20260508191207 9 124 1.6 3.2 0.00 0.00 0.00 78 1018.3
20260508191121 9 122 1.6 3.2 0.00 0.00 0.00 78 1018.3
20260508191105 9 122 1.6 3.2 0.00 0.00 0.00 78 1018.1
20260508191006 9 119 1.6 3.2 0.00 0.00 0.00 77 1018.1
20260508190806 9 119 1.6 3.2 0.00 0.00 0.00 77 1018.1
20260508190706 9 119 1.6 3.2 0.00 0.00 0.00 77 1018.0
20260508190605 9 119 1.6 1.6 0.00 0.00 0.00 77 1018.0
20260508190506 9 119 1.6 1.6 0.00 0.00 0.00 77 1018.4
20260508190405 9 119 1.6 1.6 0.00 0.00 0.00 77 1018.2
20260508190306 9 119 1.6 1.6 0.00 0.00 0.00 77 1018.0
20260508190206 9 119 1.6 1.6 0.00 0.00 0.00 77 1018.0
20260508190105 9 119 1.6 3.2 0.00 0.00 0.00 77 1018.0
20260508190005 9 119 1.6 3.2 0.00 0.00 0.00 77 1018.2
20260508185905 9 119 1.6 3.2 0.00 0.00 0.00 77 1018.2
20260508185805 9 119 1.6 3.2 0.00 0.00 0.00 77 1018.1
20260508185704 9 119 1.6 3.2 0.00 0.00 0.00 77 1018.0
20260508185606 9 119 1.6 3.2 0.00 0.00 0.00 77 1018.0
20260508185506 9 119 1.6 3.2 0.00 0.00 0.00 77 1018.0
20260508185306 9 119 1.6 3.2 0.00 0.00 0.00 77 1018.2
20260508185206 9 119 1.6 3.2 0.00 0.00 0.00 77 1017.9
20260508185106 9 119 1.6 3.2 0.00 0.00 0.00 77 1017.9
20260508185005 9 119 1.6 4.8 0.00 0.00 0.00 77 1017.9
20260508184906 9 119 1.6 4.8 0.00 0.00 0.00 77 1017.9
20260508184806 9 119 1.6 4.8 0.00 0.00 0.00 77 1018.0
20260508184719 9 119 1.6 4.8 0.00 0.00 0.00 77 1018.0
20260508184605 9 119 1.6 4.8 0.00 0.00 0.00 77 1017.9
20260508184421 9 119 1.6 4.8 0.00 0.00 0.00 77 1018.0
20260508184407 9 119 1.6 4.8 0.00 0.00 0.00 77 1017.8
20260508184306 9 119 1.6 4.8 0.00 0.00 0.00 77 1017.8
20260508184106 9 118 1.6 4.8 0.00 0.00 0.00 77 1017.8
20260508184006 9 118 0.0 1.6 0.00 0.00 0.00 77 1017.9
20260508183920 9 118 0.0 1.6 0.00 0.00 0.00 77 1017.9
20260508183906 9 118 0.0 1.6 0.00 0.00 0.00 77 1017.8
20260508183806 9 118 0.0 1.6 0.00 0.00 0.00 77 1018.0
20260508183721 9 118 0.0 1.6 0.00 0.00 0.00 77 1018.0
20260508183604 9 118 0.0 1.6 0.00 0.00 0.00 77 1017.8
20260508183406 9 118 0.0 1.6 0.00 0.00 0.00 77 1018.0
20260508183306 9 118 0.0 1.6 0.00 0.00 0.00 77 1018.0
20260508183206 9 0 0.0 0.0 0.00 0.00 0.00 77 1018.0
20260508183106 9 0 0.0 0.0 0.00 0.00 0.00 77 1017.8
20260508183006 9 0 0.0 0.0 0.00 0.00 0.00 77 1018.0
20260508182905 9 0 0.0 0.0 0.00 0.00 0.00 77 1017.8
20260508182805 9 0 0.0 0.0 0.00 0.00 0.00 77 1017.9
20260508182706 9 0 0.0 0.0 0.00 0.00 0.00 77 1017.8
20260508182606 9 0 0.0 0.0 0.00 0.00 0.00 77 1017.8
20260508182505 9 118 0.0 1.6 0.00 0.00 0.00 77 1017.9
20260508182405 9 118 0.0 1.6 0.00 0.00 0.00 77 1018.0
20260508182306 9 118 0.0 1.6 0.00 0.00 0.00 77 1017.9
20260508182204 9 118 0.0 1.6 0.00 0.00 0.00 77 1017.9
20260508182104 9 118 0.0 1.6 0.00 0.00 0.00 77 1018.0
20260508182005 9 118 0.0 1.6 0.00 0.00 0.00 77 1017.9
20260508181905 9 118 0.0 1.6 0.00 0.00 0.00 77 1018.0
20260508181806 9 118 0.0 1.6 0.00 0.00 0.00 77 1017.9
20260508181706 9 118 0.0 1.6 0.00 0.00 0.00 77 1017.9
20260508181606 9 118 0.0 1.6 0.00 0.00 0.00 77 1017.9
20260508181506 9 118 0.0 1.6 0.00 0.00 0.00 77 1017.7
20260508181406 9 118 0.0 1.6 0.00 0.00 0.00 77 1017.8
20260508181319 9 118 0.0 1.6 0.00 0.00 0.00 77 1017.8
20260508181306 9 118 0.0 1.6 0.00 0.00 0.00 77 1017.9
20260508181205 9 118 0.0 1.6 0.00 0.00 0.00 77 1017.8
20260508181006 9 118 0.0 1.6 0.00 0.00 0.00 77 1017.8
20260508180905 9 118 0.0 1.6 0.00 0.00 0.00 77 1017.8
20260508180820 9 118 0.0 1.6 0.00 0.00 0.00 77 1017.8
20260508180806 9 118 0.0 1.6 0.00 0.00 0.00 77 1018.0
20260508180706 9 118 0.0 1.6 0.00 0.00 0.00 77 1017.6
20260508180505 9 0 0.0 0.0 0.00 0.00 0.00 77 1017.8
20260508180406 9 0 0.0 0.0 0.00 0.00 0.00 77 1017.7
20260508180305 9 118 0.0 1.6 0.00 0.00 0.00 77 1017.7
20260508180205 9 118 0.0 1.6 0.00 0.00 0.00 77 1017.8
20260508180105 9 119 0.0 3.2 0.00 0.00 0.00 77 1017.7
20260508180021 9 118 0.0 3.2 0.00 0.00 0.00 76 1017.7
20260508180006 9 118 0.0 3.2 0.00 0.00 0.00 76 1017.8
20260508175905 9 118 0.0 3.2 0.00 0.00 0.00 77 1017.8
20260508175706 9 118 0.0 3.2 0.00 0.00 0.00 76 1017.7
20260508175605 9 118 0.0 3.2 0.00 0.00 0.00 76 1017.7
20260508175505 9 118 1.6 3.2 0.00 0.00 0.00 76 1017.7
20260508175306 9 118 1.6 3.2 0.00 0.00 0.00 76 1017.8
20260508175220 9 118 0.0 3.2 0.00 0.00 0.00 76 1017.8
20260508175205 9 118 0.0 3.2 0.00 0.00 0.00 76 1017.7
20260508175104 9 118 0.0 1.6 0.00 0.00 0.00 76 1017.7
20260508175019 9 118 0.0 1.6 0.00 0.00 0.00 76 1017.7
20260508174919 9 118 0.0 1.6 0.00 0.00 0.00 76 1017.6
20260508174906 9 118 0.0 1.6 0.00 0.00 0.00 76 1017.8
20260508174605 9 118 0.0 1.6 0.00 0.00 0.00 76 1017.6
20260508174505 9 118 0.0 1.6 0.00 0.00 0.00 76 1017.6
20260508174405 9 118 0.0 1.6 0.00 0.00 0.00 76 1017.7
20260508174304 9 118 0.0 1.6 0.00 0.00 0.00 76 1017.7
20260508174206 9 118 0.0 1.6 0.00 0.00 0.00 76 1017.5
20260508174005 9 118 0.0 1.6 0.00 0.00 0.00 76 1017.5
20260508173905 9 118 0.0 1.6 0.00 0.00 0.00 76 1017.6
20260508173805 9 118 0.0 1.6 0.00 0.00 0.00 76 1017.6
20260508173705 9 118 0.0 3.2 0.00 0.00 0.00 76 1017.6
20260508173620 9 118 0.0 3.2 0.00 0.00 0.00 76 1017.6
20260508173505 9 118 1.6 3.2 0.00 0.00 0.00 76 1017.5
20260508173321 9 117 1.6 3.2 0.00 0.00 0.00 76 1017.7
20260508173306 9 117 1.6 3.2 0.00 0.00 0.00 76 1017.5
20260508173206 9 117 1.6 3.2 0.00 0.00 0.00 76 1017.6
20260508173004 9 116 1.6 3.2 0.00 0.00 0.00 76 1017.5
20260508172906 9 116 1.6 3.2 0.00 0.00 0.00 76 1017.7
20260508172817 9 115 1.6 3.2 0.00 0.00 0.00 76 1017.7
20260508172706 9 115 1.6 3.2 0.00 0.00 0.00 76 1017.6
20260508172606 9 114 1.6 3.2 0.00 0.00 0.00 76 1017.7
20260508172507 9 114 1.6 3.2 0.00 0.00 0.00 76 1017.7
20260508172421 9 113 1.6 3.2 0.00 0.00 0.00 76 1017.7
20260508172406 9 113 1.6 3.2 0.00 0.00 0.00 76 1017.5
20260508172307 9 113 1.6 3.2 0.00 0.00 0.00 76 1017.7
20260508172106 9 113 1.6 1.6 0.00 0.00 0.00 76 1017.6
20260508172006 9 113 1.6 1.6 0.00 0.00 0.00 76 1017.7
20260508171905 9 113 1.6 1.6 0.00 0.00 0.00 76 1017.7
20260508171805 9 113 1.6 3.2 0.00 0.00 0.00 76 1017.8
20260508171705 9 113 1.6 3.2 0.00 0.00 0.00 76 1017.6
20260508171606 9 113 1.6 3.2 0.00 0.00 0.00 76 1017.6
20260508171506 9 113 1.6 3.2 0.00 0.00 0.00 76 1017.5
20260508171406 9 113 1.6 3.2 0.00 0.00 0.00 76 1017.6
20260508171317 9 113 1.6 3.2 0.00 0.00 0.00 76 1017.6
20260508171305 9 113 1.6 3.2 0.00 0.00 0.00 76 1017.7
20260508171220 9 113 1.6 3.2 0.00 0.00 0.00 76 1017.7
20260508171206 9 113 1.6 3.2 0.00 0.00 0.00 76 1017.4
20260508170905 9 113 0.0 3.2 0.00 0.00 0.00 76 1017.7
20260508170805 9 113 0.0 3.2 0.00 0.00 0.00 76 1017.3
20260508170704 9 114 0.0 3.2 0.00 0.00 0.00 76 1017.7
20260508170605 9 114 0.0 3.2 0.00 0.00 0.00 76 1017.8
20260508170505 9 113 0.0 1.6 0.00 0.00 0.00 76 1017.6
20260508170404 9 0 0.0 0.0 0.00 0.00 0.00 76 1017.6
20260508170303 9 0 0.0 0.0 0.00 0.00 0.00 76 1017.6
20260508170205 9 0 0.0 0.0 0.00 0.00 0.00 76 1017.7
20260508170105 9 0 0.0 0.0 0.00 0.00 0.00 76 1017.5
20260508170005 9 0 0.0 0.0 0.00 0.00 0.00 76 1017.7
20260508165919 9 0 0.0 0.0 0.00 0.00 0.00 76 1017.7
20260508165905 9 0 0.0 0.0 0.00 0.00 0.00 76 1017.6
20260508165805 10 0 0.0 0.0 0.00 0.00 0.00 76 1017.6
20260508165619 10 0 0.0 0.0 0.00 0.00 0.00 75 1017.5
20260508165505 10 0 0.0 0.0 0.00 0.00 0.00 75 1017.5
20260508165319 10 0 0.0 0.0 0.00 0.00 0.00 75 1017.4
20260508165307 10 0 0.0 0.0 0.00 0.00 0.00 75 1017.6
20260508165219 10 0 0.0 0.0 0.00 0.00 0.00 75 1017.6
20260508165205 10 0 0.0 0.0 0.00 0.00 0.00 75 1017.5
20260508164905 10 0 0.0 0.0 0.00 0.00 0.00 75 1017.6
20260508164805 10 0 0.0 0.0 0.00 0.00 0.00 75 1017.6
20260508164705 10 0 0.0 0.0 0.00 0.00 0.00 75 1017.7
20260508164604 10 0 0.0 0.0 0.00 0.00 0.00 75 1017.6
20260508164505 10 0 0.0 0.0 0.00 0.00 0.00 75 1017.5
20260508164404 10 0 0.0 0.0 0.00 0.00 0.00 75 1017.8
20260508164305 10 0 0.0 0.0 0.00 0.00 0.00 75 1017.5
20260508164205 10 0 0.0 0.0 0.00 0.00 0.00 75 1017.8
20260508164105 10 0 0.0 0.0 0.00 0.00 0.00 75 1017.5
20260508164005 10 0 0.0 0.0 0.00 0.00 0.00 75 1017.6
20260508163919 10 0 0.0 0.0 0.00 0.00 0.00 75 1017.6
20260508163904 10 0 0.0 0.0 0.00 0.00 0.00 75 1017.7
20260508163803 10 0 0.0 0.0 0.00 0.00 0.00 75 1017.7
20260508163605 10 0 0.0 0.0 0.00 0.00 0.00 75 1017.7
20260508163504 10 0 0.0 0.0 0.00 0.00 0.00 75 1017.6
20260508163418 10 0 0.0 0.0 0.00 0.00 0.00 75 1017.6
20260508163305 10 0 0.0 0.0 0.00 0.00 0.00 75 1017.7
20260508163217 10 0 0.0 0.0 0.00 0.00 0.00 75 1017.7
20260508163118 10 0 0.0 0.0 0.00 0.00 0.00 75 1017.7
20260508163104 10 0 0.0 0.0 0.00 0.00 0.00 75 1017.4
20260508163018 10 0 0.0 0.0 0.00 0.00 0.00 75 1017.4
20260508162705 10 113 0.0 1.6 0.00 0.00 0.00 75 1017.5
20260508162605 10 113 0.0 1.6 0.00 0.00 0.00 75 1017.6
20260508162504 10 113 0.0 1.6 0.00 0.00 0.00 75 1017.7
20260508162405 10 113 0.0 1.6 0.00 0.00 0.00 75 1017.7
20260508162307 10 113 0.0 1.6 0.00 0.00 0.00 75 1017.7
20260508162205 10 113 0.0 1.6 0.00 0.00 0.00 75 1017.4
20260508162105 10 113 1.6 1.6 0.00 0.00 0.00 75 1017.6
20260508162005 10 113 1.6 1.6 0.00 0.00 0.00 75 1017.7
20260508161906 10 113 1.6 1.6 0.00 0.00 0.00 75 1017.6
20260508161804 10 113 1.6 1.6 0.00 0.00 0.00 75 1017.5
20260508161704 10 113 0.0 1.6 0.00 0.00 0.00 75 1017.5
20260508161606 10 113 0.0 1.6 0.00 0.00 0.00 75 1017.4
20260508161505 10 113 0.0 1.6 0.00 0.00 0.00 75 1017.5
20260508161405 10 113 0.0 1.6 0.00 0.00 0.00 75 1017.4
20260508161305 10 113 0.0 1.6 0.00 0.00 0.00 75 1017.5
20260508161206 10 113 0.0 1.6 0.00 0.00 0.00 75 1017.3
20260508161105 10 113 0.0 1.6 0.00 0.00 0.00 75 1017.4
20260508161005 10 113 0.0 1.6 0.00 0.00 0.00 75 1017.6
20260508160905 10 113 0.0 1.6 0.00 0.00 0.00 75 1017.5
20260508160805 10 113 0.0 1.6 0.00 0.00 0.00 75 1017.5
20260508160705 10 113 0.0 1.6 0.00 0.00 0.00 75 1017.6
20260508160606 10 113 0.0 1.6 0.00 0.00 0.00 75 1017.5
20260508160504 10 113 0.0 1.6 0.00 0.00 0.00 75 1017.3
20260508160406 10 113 0.0 1.6 0.00 0.00 0.00 75 1017.4
20260508160304 10 113 0.0 1.6 0.00 0.00 0.00 75 1017.5
20260508160206 10 113 0.0 1.6 0.00 0.00 0.00 75 1017.5
20260508160106 10 113 0.0 1.6 0.00 0.00 0.00 75 1017.6
20260508160006 10 113 0.0 1.6 0.00 0.00 0.00 74 1017.6
20260508155905 10 113 0.0 1.6 0.00 0.00 0.00 74 1017.4
20260508155805 10 113 0.0 1.6 0.00 0.00 0.00 74 1017.5
20260508155706 10 113 0.0 1.6 0.00 0.00 0.00 74 1017.4
20260508155606 10 113 0.0 1.6 0.00 0.00 0.00 74 1017.4
20260508155504 10 113 0.0 1.6 0.00 0.00 0.00 74 1017.6
20260508155419 10 113 0.0 1.6 0.00 0.00 0.00 74 1017.6
20260508155406 10 113 0.0 1.6 0.00 0.00 0.00 74 1017.5
20260508155307 10 113 0.0 1.6 0.00 0.00 0.00 74 1017.3
20260508155105 10 113 0.0 1.6 0.00 0.00 0.00 74 1017.4
20260508155020 10 113 0.0 1.6 0.00 0.00 0.00 74 1017.4
20260508155006 10 113 0.0 1.6 0.00 0.00 0.00 74 1017.6
20260508154906 10 113 0.0 1.6 0.00 0.00 0.00 74 1017.4
20260508154706 10 113 0.0 1.6 0.00 0.00 0.00 74 1017.4
20260508154606 10 0 0.0 0.0 0.00 0.00 0.00 74 1017.6
20260508154505 10 0 0.0 0.0 0.00 0.00 0.00 74 1017.5
20260508154406 10 0 0.0 0.0 0.00 0.00 0.00 74 1017.4
20260508154305 10 113 0.0 1.6 0.00 0.00 0.00 74 1017.6
20260508154205 10 113 0.0 1.6 0.00 0.00 0.00 74 1017.4
20260508154120 10 113 0.0 1.6 0.00 0.00 0.00 74 1017.4
20260508154104 10 113 0.0 1.6 0.00 0.00 0.00 74 1017.5
20260508154020 10 113 0.0 1.6 0.00 0.00 0.00 74 1017.5
20260508154007 10 113 0.0 1.6 0.00 0.00 0.00 74 1017.6
20260508153706 10 113 0.0 1.6 0.00 0.00 0.00 74 1017.4
20260508153606 10 113 0.0 1.6 0.00 0.00 0.00 74 1017.3
20260508153506 10 113 0.0 1.6 0.00 0.00 0.00 74 1017.3
20260508153405 10 113 0.0 1.6 0.00 0.00 0.00 74 1017.5
20260508153206 10 113 1.6 1.6 0.00 0.00 0.00 74 1017.4
20260508153120 10 113 0.0 1.6 0.00 0.00 0.00 74 1017.4
20260508153106 10 113 0.0 1.6 0.00 0.00 0.00 74 1017.5
20260508153006 10 113 0.0 1.6 0.00 0.00 0.00 74 1017.6
20260508152805 10 113 0.0 3.2 0.00 0.00 0.00 74 1017.6
20260508152706 10 113 0.0 3.2 0.00 0.00 0.00 74 1017.5
20260508152506 10 113 0.0 3.2 0.00 0.00 0.00 74 1017.6
20260508152406 10 113 0.0 3.2 0.00 0.00 0.00 74 1017.2
20260508152320 10 113 0.0 3.2 0.00 0.00 0.00 74 1017.2
20260508152307 10 113 0.0 3.2 0.00 0.00 0.00 74 1017.6
20260508152205 10 113 0.0 3.2 0.00 0.00 0.00 73 1017.5
20260508152020 10 113 1.6 3.2 0.00 0.00 0.00 73 1017.6
20260508152005 10 113 1.6 3.2 0.00 0.00 0.00 73 1017.4
20260508151905 10 113 0.0 3.2 0.00 0.00 0.00 73 1017.4
20260508151706 10 112 0.0 3.2 0.00 0.00 0.00 73 1017.6
20260508151604 10 110 0.0 3.2 0.00 0.00 0.00 73 1017.6
20260508151506 10 109 0.0 3.2 0.00 0.00 0.00 73 1017.4
20260508151419 10 106 0.0 3.2 0.00 0.00 0.00 73 1017.4
20260508151406 10 106 0.0 3.2 0.00 0.00 0.00 73 1017.2
20260508151306 10 105 0.0 3.2 0.00 0.00 0.00 73 1017.5
20260508151105 10 97 0.0 3.2 0.00 0.00 0.00 73 1017.4
20260508151020 10 92 0.0 1.6 0.00 0.00 0.00 73 1017.4
20260508151006 10 92 0.0 1.6 0.00 0.00 0.00 73 1017.6
20260508150906 10 90 0.0 1.6 0.00 0.00 0.00 73 1017.5
20260508150706 10 87 0.0 1.6 0.00 0.00 0.00 73 1017.4
20260508150606 10 84 0.0 1.6 0.00 0.00 0.00 73 1017.6
20260508150519 10 83 0.0 1.6 0.00 0.00 0.00 73 1017.6
20260508150505 10 83 0.0 3.2 0.00 0.00 0.00 73 1017.4
20260508150404 10 83 0.0 3.2 0.00 0.00 0.00 73 1017.6
20260508150221 10 83 0.0 3.2 0.00 0.00 0.00 73 1017.3
20260508150206 10 83 0.0 3.2 0.00 0.00 0.00 73 1017.5
20260508150121 10 83 0.0 3.2 0.00 0.00 0.00 73 1017.5
20260508150106 10 83 0.0 3.2 0.00 0.00 0.00 73 1017.7
20260508145805 10 83 0.0 3.2 0.00 0.00 0.00 73 1017.4
20260508145706 10 83 0.0 3.2 0.00 0.00 0.00 73 1017.5
20260508145605 10 83 0.0 3.2 0.00 0.00 0.00 73 1017.7
20260508145505 10 83 0.0 3.2 0.00 0.00 0.00 73 1017.7
20260508145420 10 83 0.0 1.6 0.00 0.00 0.00 73 1017.7
20260508145405 10 83 0.0 1.6 0.00 0.00 0.00 73 1017.5
20260508145320 10 83 0.0 1.6 0.00 0.00 0.00 73 1017.5
20260508145307 10 83 0.0 1.6 0.00 0.00 0.00 73 1017.6
20260508145006 10 83 0.0 1.6 0.00 0.00 0.00 72 1017.6
20260508144919 10 83 0.0 1.6 0.00 0.00 0.00 72 1017.6
20260508144904 10 83 0.0 1.6 0.00 0.00 0.00 72 1017.4
20260508144806 10 83 0.0 1.6 0.00 0.00 0.00 72 1017.6
20260508144720 10 82 0.0 1.6 0.00 0.00 0.00 72 1017.6
20260508144606 10 0 0.0 0.0 0.00 0.00 0.00 72 1017.3
20260508144406 10 0 0.0 0.0 0.00 0.00 0.00 72 1017.5
20260508144320 10 0 0.0 0.0 0.00 0.00 0.00 72 1017.5
20260508144306 10 0 0.0 0.0 0.00 0.00 0.00 72 1017.6
20260508144205 10 0 0.0 0.0 0.00 0.00 0.00 72 1017.3
20260508144006 10 0 0.0 0.0 0.00 0.00 0.00 72 1017.5
20260508143906 11 0 0.0 0.0 0.00 0.00 0.00 72 1017.3
20260508143805 11 0 0.0 0.0 0.00 0.00 0.00 72 1017.3
20260508143704 10 0 0.0 0.0 0.00 0.00 0.00 72 1017.4
20260508143606 11 0 0.0 0.0 0.00 0.00 0.00 72 1017.3
20260508143506 11 0 0.0 0.0 0.00 0.00 0.00 72 1017.6
20260508143405 11 0 0.0 0.0 0.00 0.00 0.00 72 1017.4
20260508143305 11 0 0.0 0.0 0.00 0.00 0.00 72 1017.3
20260508143205 11 0 0.0 0.0 0.00 0.00 0.00 72 1017.4
20260508143121 11 0 0.0 0.0 0.00 0.00 0.00 72 1017.4
20260508143104 10 0 0.0 0.0 0.00 0.00 0.00 72 1017.4
20260508143007 11 0 0.0 0.0 0.00 0.00 0.00 72 1017.4
20260508142806 10 0 0.0 0.0 0.00 0.00 0.00 72 1017.3
20260508142705 10 0 0.0 0.0 0.00 0.00 0.00 72 1017.4
20260508142620 11 0 0.0 0.0 0.00 0.00 0.00 72 1017.4
20260508142605 11 0 0.0 0.0 0.00 0.00 0.00 72 1017.2
20260508142505 11 0 0.0 0.0 0.00 0.00 0.00 72 1017.3
20260508142419 11 0 0.0 0.0 0.00 0.00 0.00 72 1017.3
20260508142307 11 0 0.0 0.0 0.00 0.00 0.00 72 1017.2
20260508142105 11 0 0.0 0.0 0.00 0.00 0.00 71 1017.5
20260508142020 11 0 0.0 0.0 0.00 0.00 0.00 71 1017.5
20260508142006 11 0 0.0 0.0 0.00 0.00 0.00 71 1017.0
20260508141906 11 0 0.0 0.0 0.00 0.00 0.00 71 1017.1
20260508141706 11 0 0.0 0.0 0.00 0.00 0.00 71 1017.2
20260508141606 11 0 0.0 0.0 0.00 0.00 0.00 71 1017.2
20260508141521 11 0 0.0 0.0 0.00 0.00 0.00 71 1017.2
20260508141505 11 0 0.0 0.0 0.00 0.00 0.00 71 1017.3
20260508141405 11 0 0.0 0.0 0.00 0.00 0.00 71 1017.1
20260508141205 11 0 0.0 0.0 0.00 0.00 0.00 71 1017.3
20260508141106 11 0 0.0 0.0 0.00 0.00 0.00 71 1017.3
20260508141020 11 82 0.0 1.6 0.00 0.00 0.00 71 1017.3
20260508141006 11 82 0.0 1.6 0.00 0.00 0.00 71 1017.5
20260508140920 11 82 0.0 1.6 0.00 0.00 0.00 71 1017.5
20260508140906 11 82 0.0 1.6 0.00 0.00 0.00 71 1017.4
20260508140606 11 82 0.0 1.6 0.00 0.00 0.00 71 1017.4
20260508140505 11 82 0.0 1.6 0.00 0.00 0.00 71 1017.2
20260508140406 11 82 0.0 1.6 0.00 0.00 0.00 71 1017.3
20260508140306 11 82 0.0 1.6 0.00 0.00 0.00 71 1017.2
20260508140206 11 82 0.0 1.6 0.00 0.00 0.00 71 1017.3
20260508140121 11 82 0.0 1.6 0.00 0.00 0.00 71 1017.3
20260508140106 11 82 0.0 1.6 0.00 0.00 0.00 71 1017.2
20260508140005 11 82 0.0 1.6 0.00 0.00 0.00 71 1017.4
20260508135920 11 82 0.0 1.6 0.00 0.00 0.00 71 1017.4
20260508135806 11 82 0.0 1.6 0.00 0.00 0.00 70 1017.2
20260508135606 11 82 0.0 1.6 0.00 0.00 0.00 70 1017.2
20260508135504 11 82 0.0 1.6 0.00 0.00 0.00 70 1017.1
20260508135404 11 82 0.0 1.6 0.00 0.00 0.00 70 1017.2
20260508135306 11 82 0.0 1.6 0.00 0.00 0.00 70 1017.4
20260508135220 11 82 0.0 1.6 0.00 0.00 0.00 70 1017.4
20260508135205 11 82 0.0 1.6 0.00 0.00 0.00 70 1017.3
20260508135106 11 82 0.0 1.6 0.00 0.00 0.00 70 1017.1
20260508134906 11 0 0.0 0.0 0.00 0.00 0.00 70 1017.1
20260508134819 11 0 0.0 0.0 0.00 0.00 0.00 70 1017.1
20260508134804 11 0 0.0 0.0 0.00 0.00 0.00 70 1017.3
20260508134706 11 0 0.0 0.0 0.00 0.00 0.00 70 1017.1
20260508134620 11 0 0.0 0.0 0.00 0.00 0.00 70 1017.1
20260508134506 11 0 0.0 0.0 0.00 0.00 0.00 70 1017.1
20260508134306 11 0 0.0 0.0 0.00 0.00 0.00 70 1017.3
20260508134206 11 0 0.0 0.0 0.00 0.00 0.00 70 1017.2
20260508134106 11 0 0.0 0.0 0.00 0.00 0.00 70 1017.3
20260508134006 11 0 0.0 0.0 0.00 0.00 0.00 70 1017.1
20260508133907 11 0 0.0 0.0 0.00 0.00 0.00 70 1017.3
20260508133805 11 0 0.0 0.0 0.00 0.00 0.00 70 1017.3
20260508133706 11 0 0.0 0.0 0.00 0.00 0.00 70 1017.4
20260508133606 11 0 0.0 0.0 0.00 0.00 0.00 70 1017.1
20260508133520 11 0 0.0 0.0 0.00 0.00 0.00 70 1017.1
20260508133507 11 0 0.0 0.0 0.00 0.00 0.00 70 1017.2
20260508133405 11 0 0.0 0.0 0.00 0.00 0.00 70 1017.4
20260508133320 11 0 0.0 0.0 0.00 0.00 0.00 70 1017.4
20260508133206 11 0 0.0 0.0 0.00 0.00 0.00 70 1017.4
20260508133019 11 0 0.0 0.0 0.00 0.00 0.00 69 1017.4
20260508133006 11 0 0.0 0.0 0.00 0.00 0.00 69 1017.1
20260508132905 11 0 0.0 0.0 0.00 0.00 0.00 69 1017.3
20260508132706 11 0 0.0 0.0 0.00 0.00 0.00 69 1017.4
20260508132606 11 0 0.0 0.0 0.00 0.00 0.00 69 1017.3
20260508132507 11 0 0.0 0.0 0.00 0.00 0.00 69 1017.3
20260508132406 11 0 0.0 0.0 0.00 0.00 0.00 69 1017.3
20260508132320 11 0 0.0 0.0 0.00 0.00 0.00 69 1017.3
20260508132307 11 0 0.0 0.0 0.00 0.00 0.00 69 1017.2
20260508132206 11 0 0.0 0.0 0.00 0.00 0.00 69 1017.2
20260508132004 11 0 0.0 0.0 0.00 0.00 0.00 69 1017.4
20260508131906 11 0 0.0 0.0 0.00 0.00 0.00 69 1017.2
20260508131806 11 0 0.0 0.0 0.00 0.00 0.00 69 1017.2
20260508131706 11 0 0.0 0.0 0.00 0.00 0.00 69 1017.4
20260508131606 11 0 0.0 0.0 0.00 0.00 0.00 69 1017.6
20260508131505 11 0 0.0 0.0 0.00 0.00 0.00 69 1017.3
20260508131405 11 0 0.0 0.0 0.00 0.00 0.00 69 1017.4
20260508131306 11 0 0.0 0.0 0.00 0.00 0.00 69 1017.4
20260508131206 11 0 0.0 0.0 0.00 0.00 0.00 69 1017.4
20260508131105 11 0 0.0 0.0 0.00 0.00 0.00 69 1017.3
20260508131005 11 0 0.0 0.0 0.00 0.00 0.00 69 1017.3
20260508130920 11 0 0.0 0.0 0.00 0.00 0.00 69 1017.3
20260508130905 11 0 0.0 0.0 0.00 0.00 0.00 69 1017.5
20260508130806 11 0 0.0 0.0 0.00 0.00 0.00 69 1017.4
20260508130606 11 0 0.0 0.0 0.00 0.00 0.00 69 1017.5
20260508130506 11 0 0.0 0.0 0.00 0.00 0.00 68 1017.4
20260508130406 11 0 0.0 0.0 0.00 0.00 0.00 68 1017.3
20260508130305 11 0 0.0 0.0 0.00 0.00 0.00 68 1017.2
20260508130205 11 0 0.0 0.0 0.00 0.00 0.00 68 1017.2
20260508130107 11 0 0.0 0.0 0.00 0.00 0.00 68 1017.6
20260508125906 11 0 0.0 0.0 0.00 0.00 0.00 68 1017.5
20260508125821 11 0 0.0 0.0 0.00 0.00 0.00 68 1017.5
20260508125806 11 0 0.0 0.0 0.00 0.00 0.00 68 1017.3
20260508125721 11 0 0.0 0.0 0.00 0.00 0.00 68 1017.3
20260508125706 11 0 0.0 0.0 0.00 0.00 0.00 68 1017.4
20260508125406 12 0 0.0 0.0 0.00 0.00 0.00 68 1017.4
20260508125306 12 0 0.0 0.0 0.00 0.00 0.00 68 1017.3
20260508125205 12 0 0.0 0.0 0.00 0.00 0.00 68 1017.6
20260508125105 12 0 0.0 0.0 0.00 0.00 0.00 68 1017.3
20260508125006 12 0 0.0 0.0 0.00 0.00 0.00 68 1017.2
20260508124920 12 0 0.0 0.0 0.00 0.00 0.00 68 1017.2
20260508124906 12 0 0.0 0.0 0.00 0.00 0.00 68 1017.5
20260508124806 12 0 0.0 0.0 0.00 0.00 0.00 68 1017.4
20260508124606 12 0 0.0 0.0 0.00 0.00 0.00 67 1017.5
20260508124506 12 0 0.0 0.0 0.00 0.00 0.00 67 1017.1
20260508124406 12 0 0.0 0.0 0.00 0.00 0.00 67 1017.4
20260508124306 12 0 0.0 0.0 0.00 0.00 0.00 67 1017.3
20260508124206 12 0 0.0 0.0 0.00 0.00 0.00 67 1017.2
20260508124106 12 0 0.0 0.0 0.00 0.00 0.00 67 1017.3
20260508124006 12 83 0.0 1.6 0.00 0.00 0.00 67 1017.4
20260508123906 12 83 0.0 1.6 0.00 0.00 0.00 67 1017.3
20260508123806 12 83 0.0 1.6 0.00 0.00 0.00 67 1017.3
20260508123706 12 83 0.0 1.6 0.00 0.00 0.00 67 1017.2
20260508123605 12 83 0.0 1.6 0.00 0.00 0.00 67 1017.3
20260508123506 12 83 0.0 1.6 0.00 0.00 0.00 67 1017.3
20260508123406 12 83 0.0 1.6 0.00 0.00 0.00 67 1017.3
20260508123306 12 83 0.0 1.6 0.00 0.00 0.00 67 1017.3
20260508123205 12 83 0.0 1.6 0.00 0.00 0.00 67 1017.3
20260508123120 12 83 0.0 1.6 0.00 0.00 0.00 67 1017.3
20260508123106 12 83 0.0 1.6 0.00 0.00 0.00 67 1017.5
20260508122806 12 0 0.0 0.0 0.00 0.00 0.00 67 1017.4
20260508122706 12 0 0.0 0.0 0.00 0.00 0.00 67 1017.3
20260508122606 12 0 0.0 0.0 0.00 0.00 0.00 67 1017.4
20260508122506 12 0 0.0 0.0 0.00 0.00 0.00 66 1017.4
20260508122405 12 0 0.0 0.0 0.00 0.00 0.00 66 1017.4
20260508122307 12 82 0.0 1.6 0.00 0.00 0.00 66 1017.1
20260508122206 12 82 0.0 1.6 0.00 0.00 0.00 66 1017.2
20260508122106 12 82 0.0 1.6 0.00 0.00 0.00 66 1017.4
20260508122007 12 82 0.0 1.6 0.00 0.00 0.00 66 1017.4
20260508121905 12 82 0.0 1.6 0.00 0.00 0.00 66 1017.6
20260508121806 12 82 0.0 1.6 0.00 0.00 0.00 66 1017.4
20260508121705 12 82 0.0 1.6 0.00 0.00 0.00 66 1017.6
20260508121605 12 82 0.0 1.6 0.00 0.00 0.00 66 1017.1
20260508121505 12 82 0.0 1.6 0.00 0.00 0.00 66 1017.5
20260508121404 12 82 0.0 1.6 0.00 0.00 0.00 66 1017.5
20260508121306 12 83 0.0 1.6 0.00 0.00 0.00 66 1017.3
20260508121205 12 83 0.0 1.6 0.00 0.00 0.00 66 1017.6
20260508121105 12 83 0.0 1.6 0.00 0.00 0.00 66 1017.3
20260508121005 12 83 0.0 1.6 0.00 0.00 0.00 66 1017.4
20260508120907 12 83 0.0 1.6 0.00 0.00 0.00 66 1017.1
20260508120805 12 83 0.0 1.6 0.00 0.00 0.00 66 1017.3
20260508120706 12 83 0.0 1.6 0.00 0.00 0.00 66 1017.3
20260508120605 12 83 0.0 1.6 0.00 0.00 0.00 65 1017.3
20260508120520 12 83 0.0 1.6 0.00 0.00 0.00 65 1017.3
20260508120406 12 83 0.0 1.6 0.00 0.00 0.00 65 1017.2
20260508120321 12 83 0.0 1.6 0.00 0.00 0.00 65 1017.2
20260508120204 12 83 0.0 1.6 0.00 0.00 0.00 65 1017.2
20260508120021 12 83 0.0 1.6 0.00 0.00 0.00 65 1017.2
20260508115906 12 83 0.0 1.6 0.00 0.00 0.00 65 1017.2
20260508115706 12 83 0.0 1.6 0.00 0.00 0.00 65 1017.3
20260508115605 12 83 0.0 1.6 0.00 0.00 0.00 65 1017.3
20260508115506 12 83 0.0 1.6 0.00 0.00 0.00 65 1017.2
20260508115306 12 83 0.0 1.6 0.00 0.00 0.00 65 1017.0
20260508115205 12 83 0.0 1.6 0.00 0.00 0.00 65 1017.0
20260508115120 12 83 0.0 1.6 0.00 0.00 0.00 65 1017.0
20260508115105 12 83 0.0 1.6 0.00 0.00 0.00 65 1017.2
20260508115005 12 83 0.0 1.6 0.00 0.00 0.00 65 1017.0
20260508114820 12 83 0.0 1.6 0.00 0.00 0.00 65 1017.0
20260508114805 12 83 0.0 1.6 0.00 0.00 0.00 65 1016.9
20260508114706 12 83 0.0 1.6 0.00 0.00 0.00 65 1017.0
20260508114505 12 0 0.0 0.0 0.00 0.00 0.00 65 1016.9
20260508114420 12 0 0.0 0.0 0.00 0.00 0.00 65 1016.9
20260508114405 12 0 0.0 0.0 0.00 0.00 0.00 65 1016.8
20260508114306 12 83 0.0 1.6 0.00 0.00 0.00 65 1016.9
20260508114106 12 83 0.0 1.6 0.00 0.00 0.00 64 1017.0
20260508114019 12 83 0.0 1.6 0.00 0.00 0.00 64 1017.0
20260508114006 12 83 0.0 1.6 0.00 0.00 0.00 64 1016.9
20260508113906 12 83 0.0 1.6 0.00 0.00 0.00 64 1016.9
20260508113704 12 83 0.0 1.6 0.00 0.00 0.00 64 1016.9
20260508113605 12 83 0.0 1.6 0.00 0.00 0.00 64 1016.8
20260508113505 12 83 0.0 1.6 0.00 0.00 0.00 64 1017.0
20260508113406 12 83 0.0 1.6 0.00 0.00 0.00 64 1016.9
20260508113307 12 83 0.0 1.6 0.00 0.00 0.00 64 1016.8
20260508113206 12 0 0.0 0.0 0.00 0.00 0.00 64 1017.1
20260508113105 12 0 0.0 0.0 0.00 0.00 0.00 64 1016.9
20260508113021 12 0 0.0 0.0 0.00 0.00 0.00 64 1016.9
20260508113006 12 0 0.0 0.0 0.00 0.00 0.00 64 1016.7
20260508112906 12 0 0.0 0.0 0.00 0.00 0.00 64 1016.9
20260508112706 13 0 0.0 0.0 0.00 0.00 0.00 64 1017.0
20260508112606 13 0 0.0 0.0 0.00 0.00 0.00 64 1016.8
20260508112506 13 0 0.0 0.0 0.00 0.00 0.00 64 1016.8
20260508112404 13 0 0.0 0.0 0.00 0.00 0.00 64 1016.9
20260508112307 13 83 0.0 1.6 0.00 0.00 0.00 64 1016.9
20260508112206 13 83 0.0 1.6 0.00 0.00 0.00 64 1016.9
20260508112107 13 83 0.0 1.6 0.00 0.00 0.00 64 1016.8
20260508112006 13 83 0.0 1.6 0.00 0.00 0.00 64 1016.8
20260508111906 13 83 0.0 1.6 0.00 0.00 0.00 64 1016.7
20260508111806 13 83 0.0 1.6 0.00 0.00 0.00 63 1016.8
20260508111705 13 83 0.0 1.6 0.00 0.00 0.00 63 1016.6
20260508111606 13 83 0.0 3.2 0.00 0.00 0.00 63 1016.6
20260508111505 13 83 0.0 3.2 0.00 0.00 0.00 63 1016.5
20260508111405 13 83 0.0 3.2 0.00 0.00 0.00 63 1016.7
20260508111305 13 83 0.0 3.2 0.00 0.00 0.00 63 1016.7
20260508111206 13 83 0.0 3.2 0.00 0.00 0.00 63 1016.5
20260508111104 13 83 0.0 3.2 0.00 0.00 0.00 63 1016.6
20260508111006 13 83 1.6 3.2 0.00 0.00 0.00 63 1016.5
20260508110906 13 83 1.6 3.2 0.00 0.00 0.00 63 1016.6
20260508110806 13 83 1.6 3.2 0.00 0.00 0.00 63 1016.4
20260508110720 13 83 1.6 3.2 0.00 0.00 0.00 63 1016.4
20260508110706 13 83 1.6 3.2 0.00 0.00 0.00 63 1016.6
20260508110606 13 83 1.6 3.2 0.00 0.00 0.00 63 1016.4
20260508110521 13 83 1.6 3.2 0.00 0.00 0.00 63 1016.4
20260508110405 13 83 1.6 3.2 0.00 0.00 0.00 63 1016.5
20260508110222 13 83 1.6 3.2 0.00 0.00 0.00 63 1016.4
20260508110206 13 83 1.6 3.2 0.00 0.00 0.00 63 1016.3
20260508110106 13 83 1.6 3.2 0.00 0.00 0.00 63 1016.3
20260508105906 13 83 0.0 1.6 0.00 0.00 0.00 63 1016.4
20260508105806 13 83 0.0 1.6 0.00 0.00 0.00 63 1016.5
20260508105706 13 83 0.0 1.6 0.00 0.00 0.00 62 1016.0
20260508105621 13 83 0.0 1.6 0.00 0.00 0.00 62 1016.0
20260508105605 13 83 0.0 1.6 0.00 0.00 0.00 62 1016.3
20260508105506 13 83 0.0 1.6 0.00 0.00 0.00 62 1016.4
20260508105307 13 83 0.0 3.2 0.00 0.00 0.00 62 1016.2
20260508105206 13 84 0.0 4.8 0.00 0.00 0.00 62 1016.4
20260508105106 13 84 0.0 4.8 0.00 0.00 0.00 62 1016.5
20260508105006 13 84 0.0 4.8 0.00 0.00 0.00 62 1016.3
20260508104906 13 84 0.0 4.8 0.00 0.00 0.00 61 1016.2
20260508104805 13 84 0.0 4.8 0.00 0.00 0.00 61 1016.1
20260508104705 13 84 0.0 4.8 0.00 0.00 0.00 61 1016.4
20260508104606 13 85 0.0 4.8 0.00 0.00 0.00 61 1016.6
20260508104519 13 85 0.0 4.8 0.00 0.00 0.00 61 1016.6
20260508104505 13 85 0.0 4.8 0.00 0.00 0.00 61 1016.4
20260508104406 13 87 0.0 4.8 0.00 0.00 0.00 61 1016.4
20260508104206 13 97 0.0 1.6 0.00 0.00 0.00 61 1016.4
20260508104106 13 97 0.0 1.6 0.00 0.00 0.00 61 1016.3
20260508104006 13 97 0.0 1.6 0.00 0.00 0.00 61 1016.2
20260508103921 13 97 0.0 1.6 0.00 0.00 0.00 61 1016.2
20260508103906 13 97 0.0 1.6 0.00 0.00 0.00 61 1016.3
20260508103806 13 97 0.0 1.6 0.00 0.00 0.00 61 1016.4
20260508103606 13 97 0.0 1.6 0.00 0.00 0.00 61 1016.2
20260508103505 13 97 0.0 1.6 0.00 0.00 0.00 61 1016.1
20260508103406 13 97 0.0 1.6 0.00 0.00 0.00 61 1016.1
20260508103318 13 97 0.0 1.6 0.00 0.00 0.00 61 1016.1
20260508103305 13 97 0.0 1.6 0.00 0.00 0.00 61 1016.2
20260508103205 13 97 0.0 1.6 0.00 0.00 0.00 61 1016.3
20260508103005 13 97 0.0 1.6 0.00 0.00 0.00 61 1016.0
20260508102906 13 97 0.0 1.6 0.00 0.00 0.00 61 1016.2
20260508102807 13 97 0.0 1.6 0.00 0.00 0.00 61 1016.2
20260508102705 13 97 0.0 1.6 0.00 0.00 0.00 61 1016.1
20260508102621 13 97 0.0 1.6 0.00 0.00 0.00 61 1016.1
20260508102605 13 97 1.6 1.6 0.00 0.00 0.00 61 1016.3
20260508102505 13 97 1.6 1.6 0.00 0.00 0.00 61 1016.3
20260508102306 13 97 1.6 1.6 0.00 0.00 0.00 61 1016.2
20260508102206 13 97 1.6 1.6 0.00 0.00 0.00 61 1016.1
20260508102105 13 97 1.6 1.6 0.00 0.00 0.00 61 1016.3
20260508102004 13 97 1.6 1.6 0.00 0.00 0.00 60 1016.0
20260508101919 13 97 1.6 1.6 0.00 0.00 0.00 60 1016.0
20260508101906 13 97 1.6 1.6 0.00 0.00 0.00 60 1015.9
20260508101806 13 97 1.6 1.6 0.00 0.00 0.00 60 1016.2
20260508101606 13 97 1.6 1.6 0.00 0.00 0.00 60 1016.0
20260508101504 13 97 1.6 1.6 0.00 0.00 0.00 60 1016.1
20260508101405 13 97 0.0 1.6 0.00 0.00 0.00 60 1016.2
20260508101305 13 97 1.6 3.2 0.00 0.00 0.00 60 1015.9
20260508101205 13 94 1.6 3.2 0.00 0.00 0.00 60 1016.1
20260508101106 13 94 0.0 3.2 0.00 0.00 0.00 60 1016.1
20260508101020 13 94 0.0 3.2 0.00 0.00 0.00 60 1016.1
20260508101006 13 93 0.0 3.2 0.00 0.00 0.00 60 1016.0
20260508100905 13 91 0.0 3.2 0.00 0.00 0.00 60 1016.1
20260508100706 13 88 0.0 3.2 0.00 0.00 0.00 60 1016.2
20260508100606 13 87 0.0 3.2 0.00 0.00 0.00 60 1016.1
20260508100506 13 87 0.0 3.2 0.00 0.00 0.00 60 1016.1
20260508100406 13 84 0.0 3.2 0.00 0.00 0.00 60 1016.2
20260508100306 13 78 0.0 1.6 0.00 0.00 0.00 60 1016.2
20260508100205 13 78 0.0 1.6 0.00 0.00 0.00 60 1016.0
20260508100105 13 78 0.0 1.6 0.00 0.00 0.00 60 1016.0
20260508100006 13 78 0.0 1.6 0.00 0.00 0.00 60 1016.2
20260508095921 13 78 0.0 1.6 0.00 0.00 0.00 60 1016.2
20260508095904 13 78 0.0 1.6 0.00 0.00 0.00 60 1016.3
20260508095806 13 78 0.0 1.6 0.00 0.00 0.00 60 1016.0
20260508095604 13 78 0.0 3.2 0.00 0.00 0.00 60 1016.2
20260508095506 13 78 0.0 3.2 0.00 0.00 0.00 60 1016.1
20260508095406 13 78 0.0 3.2 0.00 0.00 0.00 60 1016.1
20260508095307 13 78 1.6 3.2 0.00 0.00 0.00 60 1016.1
20260508095206 13 78 1.6 3.2 0.00 0.00 0.00 60 1016.0
20260508095004 13 78 1.6 3.2 0.00 0.00 0.00 59 1016.0
20260508094906 13 78 1.6 3.2 0.00 0.00 0.00 59 1016.1
20260508094805 14 78 1.6 3.2 0.00 0.00 0.00 59 1016.1
20260508094706 14 78 0.0 3.2 0.00 0.00 0.00 59 1016.1
20260508094606 14 78 0.0 3.2 0.00 0.00 0.00 59 1016.2
20260508094505 14 77 0.0 3.2 0.00 0.00 0.00 59 1016.1
20260508094405 14 77 0.0 1.6 0.00 0.00 0.00 59 1016.2
20260508094305 14 77 0.0 1.6 0.00 0.00 0.00 59 1016.1
20260508094205 14 77 0.0 1.6 0.00 0.00 0.00 59 1016.2
20260508094105 14 77 0.0 1.6 0.00 0.00 0.00 59 1016.1
20260508094006 14 77 0.0 3.2 0.00 0.00 0.00 59 1016.0
20260508093906 14 77 1.6 3.2 0.00 0.00 0.00 59 1016.1
20260508093806 14 77 1.6 3.2 0.00 0.00 0.00 59 1016.1
20260508093706 14 77 1.6 3.2 0.00 0.00 0.00 59 1016.4
20260508093620 14 77 1.6 3.2 0.00 0.00 0.00 59 1016.4
20260508093607 14 77 1.6 3.2 0.00 0.00 0.00 59 1016.0
20260508093505 14 77 1.6 3.2 0.00 0.00 0.00 59 1016.0
20260508093306 14 77 1.6 3.2 0.00 0.00 0.00 59 1015.9
20260508093206 14 77 1.6 3.2 0.00 0.00 0.00 59 1015.9
20260508093106 14 77 0.0 3.2 0.00 0.00 0.00 59 1015.8
20260508093004 14 77 0.0 3.2 0.00 0.00 0.00 59 1015.8
20260508092906 14 77 0.0 1.6 0.00 0.00 0.00 59 1015.9
20260508092806 14 77 0.0 1.6 0.00 0.00 0.00 59 1015.9
20260508092705 14 77 0.0 1.6 0.00 0.00 0.00 59 1015.8
20260508092606 14 77 0.0 1.6 0.00 0.00 0.00 59 1015.9
20260508092506 14 77 0.0 1.6 0.00 0.00 0.00 59 1015.7
20260508092406 14 77 0.0 1.6 0.00 0.00 0.00 59 1015.9
20260508092320 14 77 0.0 1.6 0.00 0.00 0.00 59 1015.9
20260508092313 14 77 0.0 1.6 0.00 0.00 0.00 59 1015.7
20260508092205 14 77 0.0 1.6 0.00 0.00 0.00 59 1015.9
20260508092119 14 77 0.0 1.6 0.00 0.00 0.00 59 1015.9
20260508092006 14 77 0.0 1.6 0.00 0.00 0.00 59 1015.7
20260508091805 14 77 0.0 1.6 0.00 0.00 0.00 59 1015.7
20260508091706 14 76 0.0 1.6 0.00 0.00 0.00 59 1015.6
20260508091606 14 76 0.0 1.6 0.00 0.00 0.00 59 1015.5
20260508091505 14 76 0.0 3.2 0.00 0.00 0.00 59 1015.6
20260508091405 14 76 0.0 3.2 0.00 0.00 0.00 59 1015.8
20260508091306 14 77 0.0 3.2 0.00 0.00 0.00 59 1015.7
20260508091206 14 77 0.0 3.2 0.00 0.00 0.00 59 1015.3
20260508091106 14 79 0.0 3.2 0.00 0.00 0.00 59 1015.3
20260508091004 14 80 0.0 3.2 0.00 0.00 0.00 59 1015.4
20260508090904 14 83 0.0 3.2 0.00 0.00 0.00 58 1015.5
20260508090806 14 84 0.0 3.2 0.00 0.00 0.00 59 1015.5
20260508090706 14 88 0.0 3.2 0.00 0.00 0.00 59 1015.2
20260508090606 14 90 0.0 3.2 0.00 0.00 0.00 59 1015.3
20260508090506 14 91 0.0 3.2 0.00 0.00 0.00 58 1015.3
20260508090404 14 93 1.6 3.2 0.00 0.00 0.00 58 1015.2
20260508090320 14 94 1.6 3.2 0.00 0.00 0.00 58 1015.2
20260508090306 14 94 1.6 3.2 0.00 0.00 0.00 58 1015.3
20260508090206 14 95 1.6 3.2 0.00 0.00 0.00 58 1015.3
20260508090119 14 96 1.6 3.2 0.00 0.00 0.00 58 1015.3
20260508090006 14 97 1.6 3.2 0.00 0.00 0.00 58 1015.2
20260508085821 14 96 1.6 3.2 0.00 0.00 0.00 58 1015.2
20260508085806 14 96 1.6 3.2 0.00 0.00 0.00 58 1015.1
20260508085706 14 94 1.6 4.8 0.00 0.00 0.00 58 1015.3
20260508085506 14 96 1.6 4.8 0.00 0.00 0.00 58 1015.2
20260508085407 14 96 1.6 4.8 0.00 0.00 0.00 58 1015.4
20260508085307 14 96 1.6 4.8 0.00 0.00 0.00 58 1015.3
20260508085206 14 96 1.6 4.8 0.00 0.00 0.00 58 1015.3
20260508085106 14 96 1.6 4.8 0.00 0.00 0.00 58 1015.3
20260508085004 14 96 1.6 4.8 0.00 0.00 0.00 58 1015.3
20260508084805 14 100 1.6 4.8 0.00 0.00 0.00 58 1015.2
20260508084705 14 102 1.6 4.8 0.00 0.00 0.00 58 1015.3
20260508084605 15 104 1.6 3.2 0.00 0.00 0.00 58 1015.1
20260508084504 15 102 1.6 3.2 0.00 0.00 0.00 58 1015.6
20260508084406 15 102 1.6 3.2 0.00 0.00 0.00 58 1015.1
20260508084306 15 101 1.6 3.2 0.00 0.00 0.00 58 1015.3
20260508084206 15 98 1.6 3.2 0.00 0.00 0.00 58 1015.3
20260508084119 15 94 1.6 3.2 0.00 0.00 0.00 58 1015.3
20260508084106 15 94 1.6 3.2 0.00 0.00 0.00 58 1015.2
20260508084006 15 93 1.6 3.2 0.00 0.00 0.00 57 1015.4
20260508083806 15 90 1.6 3.2 0.00 0.00 0.00 57 1015.2
20260508083706 15 87 1.6 3.2 0.00 0.00 0.00 57 1015.3
20260508083605 15 81 1.6 3.2 0.00 0.00 0.00 57 1015.2
20260508083505 15 79 0.0 3.2 0.00 0.00 0.00 57 1015.3
20260508083407 15 78 0.0 3.2 0.00 0.00 0.00 57 1015.2
20260508083305 15 78 0.0 3.2 0.00 0.00 0.00 57 1015.3
20260508083204 15 79 0.0 3.2 0.00 0.00 0.00 57 1015.1
20260508083106 15 83 0.0 3.2 0.00 0.00 0.00 57 1015.2
20260508083006 15 82 0.0 3.2 0.00 0.00 0.00 57 1015.1
20260508082906 15 84 0.0 3.2 0.00 0.00 0.00 57 1015.0
20260508082806 15 86 0.0 6.4 0.00 0.00 0.00 57 1015.2
20260508082705 15 90 0.0 6.4 0.00 0.00 0.00 57 1015.0
20260508082606 15 92 0.0 6.4 0.00 0.00 0.00 57 1015.0
20260508082505 15 93 0.0 6.4 0.00 0.00 0.00 57 1015.0
20260508082406 15 94 0.0 6.4 0.00 0.00 0.00 56 1015.0
20260508082306 15 94 0.0 6.4 0.00 0.00 0.00 56 1015.0
20260508082206 15 95 0.0 6.4 0.00 0.00 0.00 56 1015.2
20260508082104 15 95 1.6 6.4 0.00 0.00 0.00 56 1015.0
20260508082006 15 94 1.6 6.4 0.00 0.00 0.00 56 1015.1
20260508081906 15 90 1.6 6.4 0.00 0.00 0.00 56 1014.9
20260508081805 15 90 1.6 4.8 0.00 0.00 0.00 56 1015.0
20260508081706 15 89 1.6 4.8 0.00 0.00 0.00 56 1014.9
20260508081605 15 90 1.6 4.8 0.00 0.00 0.00 56 1015.0
20260508081521 15 90 1.6 4.8 0.00 0.00 0.00 55 1015.0
20260508081506 15 90 1.6 4.8 0.00 0.00 0.00 55 1014.9
20260508081405 15 91 1.6 4.8 0.00 0.00 0.00 55 1014.8
20260508081206 15 92 1.6 4.8 0.00 0.00 0.00 55 1014.8
20260508081105 15 93 1.6 4.8 0.00 0.00 0.00 55 1014.8
20260508081004 15 94 1.6 4.8 0.00 0.00 0.00 55 1015.0
20260508080905 15 95 1.6 11.3 0.00 0.00 0.00 55 1014.8
20260508080804 15 91 1.6 11.3 0.00 0.00 0.00 55 1014.7
20260508080705 15 91 1.6 11.3 0.00 0.00 0.00 55 1014.8
20260508080606 15 91 1.6 11.3 0.00 0.00 0.00 55 1014.7
20260508080506 15 91 1.6 11.3 0.00 0.00 0.00 55 1014.8
20260508080405 15 87 1.6 11.3 0.00 0.00 0.00 55 1014.8
20260508080306 15 85 1.6 11.3 0.00 0.00 0.00 55 1014.7
20260508080206 15 85 1.6 11.3 0.00 0.00 0.00 54 1014.7
20260508080106 15 83 1.6 11.3 0.00 0.00 0.00 54 1014.4
20260508080022 15 83 1.6 11.3 0.00 0.00 0.00 54 1014.4
20260508080005 15 83 1.6 11.3 0.00 0.00 0.00 54 1014.6
20260508075907 15 80 1.6 6.4 0.00 0.00 0.00 54 1014.6
20260508075706 15 84 1.6 6.4 0.00 0.00 0.00 54 1014.5
20260508075618 15 83 1.6 6.4 0.00 0.00 0.00 54 1014.5
20260508075606 15 82 1.6 6.4 0.00 0.00 0.00 54 1014.6
20260508075506 15 81 1.6 6.4 0.00 0.00 0.00 54 1014.6
20260508075421 15 83 1.6 6.4 0.00 0.00 0.00 53 1014.6
20260508075308 15 84 1.6 6.4 0.00 0.00 0.00 53 1014.6
20260508075104 15 82 1.6 4.8 0.00 0.00 0.00 53 1014.6
20260508075005 15 83 1.6 4.8 0.00 0.00 0.00 53 1014.5
20260508074904 15 84 0.0 4.8 0.00 0.00 0.00 53 1014.6
20260508074805 16 88 0.0 4.8 0.00 0.00 0.00 53 1014.5
20260508074706 16 91 1.6 4.8 0.00 0.00 0.00 53 1014.6
20260508074606 16 94 0.0 4.8 0.00 0.00 0.00 53 1014.6
20260508074504 16 99 0.0 4.8 0.00 0.00 0.00 53 1014.6
20260508074404 16 101 1.6 6.4 0.00 0.00 0.00 52 1014.6
20260508074220 16 96 1.6 6.4 0.00 0.00 0.00 52 1014.6
20260508074206 16 96 1.6 6.4 0.00 0.00 0.00 52 1014.5
20260508074106 16 94 1.6 6.4 0.00 0.00 0.00 52 1014.5
20260508074021 16 93 1.6 6.4 0.00 0.00 0.00 52 1014.5
20260508073906 16 92 1.6 6.4 0.00 0.00 0.00 52 1014.4
20260508073706 16 89 1.6 6.4 0.00 0.00 0.00 51 1014.5
20260508073604 16 89 1.6 6.4 0.00 0.00 0.00 51 1014.5
20260508073504 16 88 1.6 6.4 0.00 0.00 0.00 51 1014.2
20260508073405 16 80 0.0 4.8 0.00 0.00 0.00 51 1014.4
20260508073319 16 79 0.0 3.2 0.00 0.00 0.00 51 1014.4
20260508073305 16 79 0.0 3.2 0.00 0.00 0.00 51 1014.4
20260508073205 16 81 0.0 6.4 0.00 0.00 0.00 51 1014.1
20260508073004 16 80 0.0 6.4 0.00 0.00 0.00 51 1014.2
20260508072920 16 73 1.6 6.4 0.00 0.00 0.00 50 1014.2
20260508072906 16 74 1.6 6.4 0.00 0.00 0.00 50 1014.2
20260508072804 16 78 1.6 11.3 0.00 0.00 0.00 51 1014.2
20260508072721 16 78 1.6 11.3 0.00 0.00 0.00 50 1014.2
20260508072606 16 78 1.6 11.3 0.00 0.00 0.00 50 1014.1
20260508072404 16 79 1.6 11.3 0.00 0.00 0.00 50 1014.2
20260508072307 16 79 1.6 11.3 0.00 0.00 0.00 50 1014.2
20260508072206 16 78 1.6 11.3 0.00 0.00 0.00 50 1014.1
20260508072105 16 77 1.6 11.3 0.00 0.00 0.00 49 1014.2
20260508072004 16 78 1.6 11.3 0.00 0.00 0.00 49 1014.2
20260508071905 16 87 0.0 11.3 0.00 0.00 0.00 50 1014.0
20260508071704 16 86 0.0 1.6 0.00 0.00 0.00 49 1014.0
20260508071605 16 85 0.0 1.6 0.00 0.00 0.00 49 1014.1
20260508071504 16 83 0.0 1.6 0.00 0.00 0.00 49 1014.0
20260508071404 16 83 0.0 1.6 0.00 0.00 0.00 49 1013.9
20260508071304 17 82 0.0 1.6 0.00 0.00 0.00 49 1014.0
20260508071206 17 82 0.0 1.6 0.00 0.00 0.00 49 1014.0
20260508071120 17 82 0.0 1.6 0.00 0.00 0.00 49 1014.0
20260508071105 17 82 0.0 1.6 0.00 0.00 0.00 49 1014.1
20260508071005 17 83 0.0 1.6 0.00 0.00 0.00 49 1014.1
20260508070706 17 83 0.0 1.6 0.00 0.00 0.00 49 1014.0
20260508070605 17 84 0.0 1.6 0.00 0.00 0.00 49 1013.9
20260508070520 17 85 0.0 1.6 0.00 0.00 0.00 49 1013.9
20260508070505 17 85 0.0 1.6 0.00 0.00 0.00 49 1014.0
20260508070406 17 85 0.0 1.6 0.00 0.00 0.00 49 1014.0
20260508070204 17 86 0.0 1.6 0.00 0.00 0.00 49 1014.0
20260508070120 17 86 0.0 1.6 0.00 0.00 0.00 49 1014.0
20260508070105 17 87 0.0 1.6 0.00 0.00 0.00 48 1013.8
20260508070005 17 87 0.0 1.6 0.00 0.00 0.00 48 1014.1
20260508065806 17 89 0.0 1.6 0.00 0.00 0.00 48 1013.7
20260508065705 18 89 0.0 1.6 0.00 0.00 0.00 48 1013.9
20260508065619 18 89 0.0 1.6 0.00 0.00 0.00 48 1013.9
20260508065606 18 89 0.0 1.6 0.00 0.00 0.00 48 1013.8
20260508065505 18 90 0.0 1.6 0.00 0.00 0.00 48 1014.0
20260508065307 18 90 0.0 1.6 0.00 0.00 0.00 48 1013.9
20260508065206 18 90 0.0 1.6 0.00 0.00 0.00 48 1013.9
20260508065106 18 90 0.0 1.6 0.00 0.00 0.00 48 1013.9
20260508065005 18 90 0.0 1.6 0.00 0.00 0.00 48 1014.0
20260508064905 18 90 0.0 1.6 0.00 0.00 0.00 48 1014.1
20260508064820 18 90 0.0 1.6 0.00 0.00 0.00 47 1014.1
20260508064805 18 90 0.0 1.6 0.00 0.00 0.00 47 1013.9
20260508064706 18 90 0.0 1.6 0.00 0.00 0.00 47 1013.9
20260508064405 18 90 0.0 3.2 0.00 0.00 0.00 47 1013.8
20260508064305 18 90 0.0 3.2 0.00 0.00 0.00 47 1013.7
20260508064205 18 90 1.6 3.2 0.00 0.00 0.00 47 1013.7
20260508064104 18 90 1.6 3.2 0.00 0.00 0.00 47 1013.8
20260508064006 18 90 1.6 3.2 0.00 0.00 0.00 47 1013.7
20260508063905 18 91 1.6 3.2 0.00 0.00 0.00 47 1013.8
20260508063820 18 91 1.6 3.2 0.00 0.00 0.00 47 1013.8
20260508063804 18 91 1.6 3.2 0.00 0.00 0.00 47 1013.6
20260508063721 18 92 1.6 3.2 0.00 0.00 0.00 47 1013.6
20260508063706 18 92 1.6 3.2 0.00 0.00 0.00 47 1013.9
20260508063406 18 94 1.6 3.2 0.00 0.00 0.00 47 1013.7
20260508063306 18 95 1.6 3.2 0.00 0.00 0.00 47 1013.7
20260508063206 18 96 1.6 3.2 0.00 0.00 0.00 47 1013.6
20260508063107 18 97 1.6 3.2 0.00 0.00 0.00 47 1013.7
20260508063004 18 97 1.6 3.2 0.00 0.00 0.00 47 1013.5
20260508062905 18 99 1.6 3.2 0.00 0.00 0.00 47 1013.5
20260508062820 18 99 1.6 3.2 0.00 0.00 0.00 47 1013.5
20260508062805 18 99 1.6 3.2 0.00 0.00 0.00 47 1013.6
20260508062706 18 99 1.6 3.2 0.00 0.00 0.00 47 1013.4
20260508062505 18 100 1.6 3.2 0.00 0.00 0.00 47 1013.4
20260508062405 18 100 1.6 3.2 0.00 0.00 0.00 47 1013.4
20260508062306 18 100 1.6 3.2 0.00 0.00 0.00 47 1013.3
20260508062219 18 100 1.6 3.2 0.00 0.00 0.00 47 1013.3
20260508062205 18 100 1.6 3.2 0.00 0.00 0.00 47 1013.4
20260508062106 18 100 1.6 3.2 0.00 0.00 0.00 47 1013.5
20260508061906 18 100 1.6 3.2 0.00 0.00 0.00 47 1013.4
20260508061806 18 101 0.0 3.2 0.00 0.00 0.00 47 1013.5
20260508061704 18 101 0.0 3.2 0.00 0.00 0.00 47 1013.5
20260508061606 18 101 0.0 1.6 0.00 0.00 0.00 47 1013.3
20260508061506 19 101 0.0 1.6 0.00 0.00 0.00 48 1013.4
20260508061406 19 101 0.0 1.6 0.00 0.00 0.00 47 1013.4
20260508061306 19 101 0.0 1.6 0.00 0.00 0.00 47 1013.3
20260508061206 19 101 0.0 1.6 0.00 0.00 0.00 47 1013.3
20260508061106 19 101 0.0 1.6 0.00 0.00 0.00 48 1013.5
20260508061006 19 101 0.0 1.6 0.00 0.00 0.00 48 1013.3
20260508060906 19 101 0.0 1.6 0.00 0.00 0.00 48 1013.5
20260508060804 19 101 0.0 1.6 0.00 0.00 0.00 47 1013.4
20260508060706 19 101 0.0 1.6 0.00 0.00 0.00 47 1013.4
20260508060605 19 101 0.0 1.6 0.00 0.00 0.00 47 1013.4
20260508060506 19 101 0.0 1.6 0.00 0.00 0.00 47 1013.4
20260508060406 19 101 0.0 1.6 0.00 0.00 0.00 47 1013.3
20260508060305 19 101 0.0 1.6 0.00 0.00 0.00 47 1013.5
20260508060206 19 101 0.0 1.6 0.00 0.00 0.00 47 1013.4
20260508060106 19 101 0.0 1.6 0.00 0.00 0.00 47 1013.4
20260508060006 19 101 0.0 3.2 0.00 0.00 0.00 47 1013.3
20260508055906 19 101 0.0 3.2 0.00 0.00 0.00 47 1013.5
20260508055820 19 101 0.0 3.2 0.00 0.00 0.00 47 1013.5
20260508055806 19 102 0.0 3.2 0.00 0.00 0.00 47 1013.4
20260508055706 19 102 0.0 3.2 0.00 0.00 0.00 47 1013.2
20260508055506 19 102 1.6 3.2 0.00 0.00 0.00 47 1013.5
20260508055405 19 102 1.6 3.2 0.00 0.00 0.00 47 1013.2
20260508055306 19 102 1.6 3.2 0.00 0.00 0.00 46 1013.3
20260508055205 19 102 1.6 3.2 0.00 0.00 0.00 46 1013.3
20260508055104 19 102 1.6 3.2 0.00 0.00 0.00 46 1013.4
20260508055006 19 103 0.0 3.2 0.00 0.00 0.00 46 1013.3
20260508054905 19 103 0.0 3.2 0.00 0.00 0.00 46 1013.3
20260508054804 19 103 0.0 3.2 0.00 0.00 0.00 47 1013.2
20260508054706 20 103 0.0 1.6 0.00 0.00 0.00 46 1013.4
20260508054606 20 103 0.0 1.6 0.00 0.00 0.00 46 1013.4
20260508054505 20 103 0.0 1.6 0.00 0.00 0.00 46 1013.6
20260508054418 20 103 0.0 1.6 0.00 0.00 0.00 46 1013.6
20260508054405 20 103 0.0 1.6 0.00 0.00 0.00 46 1013.4
20260508054305 20 103 0.0 1.6 0.00 0.00 0.00 46 1013.3
20260508054104 20 103 0.0 1.6 0.00 0.00 0.00 46 1013.3
20260508054005 20 103 0.0 1.6 0.00 0.00 0.00 46 1013.3
20260508053905 20 103 0.0 1.6 0.00 0.00 0.00 46 1013.1
20260508053820 20 103 0.0 3.2 0.00 0.00 0.00 46 1013.1
20260508053806 20 103 0.0 3.2 0.00 0.00 0.00 46 1013.2
20260508053706 20 102 0.0 3.2 0.00 0.00 0.00 46 1013.2
20260508053505 20 96 0.0 3.2 0.00 0.00 0.00 45 1013.3
20260508053405 20 88 0.0 3.2 0.00 0.00 0.00 46 1013.3
20260508053305 20 71 0.0 3.2 0.00 0.00 0.00 45 1013.3
20260508053206 20 7 1.6 3.2 0.00 0.00 0.00 45 1013.3
20260508053105 20 324 1.6 3.2 0.00 0.00 0.00 45 1013.5
20260508053005 20 309 1.6 3.2 0.00 0.00 0.00 45 1013.5
20260508052905 20 304 1.6 3.2 0.00 0.00 0.00 45 1013.6
20260508052805 20 301 1.6 3.2 0.00 0.00 0.00 45 1013.5
20260508052706 20 300 1.6 3.2 0.00 0.00 0.00 45 1013.2
20260508052606 20 300 1.6 3.2 0.00 0.00 0.00 45 1013.4
20260508052507 20 300 1.6 3.2 0.00 0.00 0.00 45 1013.2
20260508052406 20 300 1.6 3.2 0.00 0.00 0.00 45 1013.3
20260508052307 20 300 1.6 3.2 0.00 0.00 0.00 45 1013.3
20260508052205 20 300 1.6 6.4 0.00 0.00 0.00 45 1013.1
20260508052106 20 301 1.6 6.4 0.00 0.00 0.00 45 1013.2
20260508052006 20 302 1.6 6.4 0.00 0.00 0.00 45 1013.3
20260508051905 20 302 1.6 9.7 0.00 0.00 0.00 44 1013.2
20260508051806 20 304 1.6 9.7 0.00 0.00 0.00 44 1013.3
20260508051718 20 304 1.6 9.7 0.00 0.00 0.00 44 1013.3
20260508051705 20 304 1.6 9.7 0.00 0.00 0.00 44 1013.2
20260508051619 20 304 1.6 9.7 0.00 0.00 0.00 44 1013.2
20260508051605 20 305 1.6 9.7 0.00 0.00 0.00 44 1013.3
20260508051304 20 305 1.6 9.7 0.00 0.00 0.00 44 1013.4
20260508051204 20 306 1.6 9.7 0.00 0.00 0.00 44 1013.5
20260508051106 20 307 1.6 9.7 0.00 0.00 0.00 44 1013.3
20260508051006 20 306 1.6 9.7 0.00 0.00 0.00 45 1013.5
20260508050919 20 308 1.6 9.7 0.00 0.00 0.00 45 1013.5
20260508050906 20 309 1.6 6.4 0.00 0.00 0.00 45 1013.5
20260508050806 20 310 1.6 6.4 0.00 0.00 0.00 45 1013.4
20260508050605 20 313 1.6 6.4 0.00 0.00 0.00 44 1013.4
20260508050519 20 314 1.6 6.4 0.00 0.00 0.00 44 1013.4
20260508050504 20 315 1.6 6.4 0.00 0.00 0.00 44 1013.7
20260508050404 20 316 1.6 6.4 0.00 0.00 0.00 44 1013.4
20260508050205 20 318 1.6 6.4 0.00 0.00 0.00 44 1013.3
20260508050106 20 319 1.6 6.4 0.00 0.00 0.00 44 1013.3
20260508050005 20 323 1.6 6.4 0.00 0.00 0.00 44 1013.6
20260508045905 20 324 1.6 4.8 0.00 0.00 0.00 44 1013.4
20260508045804 20 324 1.6 4.8 0.00 0.00 0.00 44 1013.4
20260508045706 20 324 1.6 4.8 0.00 0.00 0.00 44 1013.5
20260508045606 20 324 1.6 4.8 0.00 0.00 0.00 44 1013.5
20260508045505 20 324 1.6 4.8 0.00 0.00 0.00 44 1013.5
20260508045420 20 324 1.6 4.8 0.00 0.00 0.00 44 1013.5
20260508045405 20 324 1.6 4.8 0.00 0.00 0.00 44 1013.4
20260508045307 20 324 1.6 4.8 0.00 0.00 0.00 44 1013.5
20260508045104 20 324 1.6 4.8 0.00 0.00 0.00 44 1013.5
20260508045005 20 325 1.6 4.8 0.00 0.00 0.00 44 1013.6
20260508044904 20 330 1.6 4.8 0.00 0.00 0.00 44 1013.4
20260508044805 20 334 1.6 4.8 0.00 0.00 0.00 44 1013.5
20260508044705 20 339 1.6 4.8 0.00 0.00 0.00 44 1013.3
20260508044620 20 339 1.6 4.8 0.00 0.00 0.00 44 1013.3
20260508044605 20 339 1.6 4.8 0.00 0.00 0.00 44 1013.4
20260508044506 20 337 1.6 4.8 0.00 0.00 0.00 44 1013.4
20260508044306 20 336 1.6 4.8 0.00 0.00 0.00 44 1013.5
20260508044205 20 336 1.6 4.8 0.00 0.00 0.00 44 1013.5
20260508044119 20 335 1.6 4.8 0.00 0.00 0.00 44 1013.5
20260508044106 20 334 1.6 4.8 0.00 0.00 0.00 44 1013.4
20260508044006 20 334 1.6 4.8 0.00 0.00 0.00 44 1013.6
20260508043819 20 325 1.6 4.8 0.00 0.00 0.00 44 1013.5
20260508043806 20 324 1.6 4.8 0.00 0.00 0.00 44 1013.5
20260508043706 20 316 1.6 4.8 0.00 0.00 0.00 44 1013.4
20260508043505 20 317 1.6 6.4 0.00 0.00 0.00 44 1013.4
20260508043404 20 317 1.6 6.4 0.00 0.00 0.00 43 1013.5
20260508043320 20 317 1.6 6.4 0.00 0.00 0.00 43 1013.5
20260508043305 20 317 1.6 6.4 0.00 0.00 0.00 43 1013.4
20260508043205 20 320 1.6 6.4 0.00 0.00 0.00 43 1013.7
20260508043005 20 329 1.6 6.4 0.00 0.00 0.00 43 1013.7
20260508042904 20 333 1.6 6.4 0.00 0.00 0.00 43 1013.6
20260508042821 20 335 1.6 6.4 0.00 0.00 0.00 43 1013.6
20260508042805 20 335 1.6 6.4 0.00 0.00 0.00 43 1013.6
20260508042720 20 333 1.6 6.4 0.00 0.00 0.00 43 1013.6
20260508042704 20 333 1.6 6.4 0.00 0.00 0.00 43 1013.5
20260508042519 20 341 1.6 4.8 0.00 0.00 0.00 43 1013.7
20260508042406 20 355 1.6 4.8 0.00 0.00 0.00 43 1013.6
20260508042221 20 10 1.6 4.8 0.00 0.00 0.00 42 1013.7
20260508042206 20 12 1.6 4.8 0.00 0.00 0.00 43 1013.5
20260508042107 20 8 1.6 6.4 0.00 0.00 0.00 44 1013.7
20260508041906 20 360 1.6 6.4 0.00 0.00 0.00 43 1013.6
20260508041804 20 357 1.6 6.4 0.00 0.00 0.00 43 1013.5
20260508041705 20 356 1.6 6.4 0.00 0.00 0.00 43 1013.8
20260508041604 20 360 1.6 6.4 0.00 0.00 0.00 43 1013.7
20260508041505 20 345 1.6 6.4 0.00 0.00 0.00 43 1013.8
20260508041405 20 335 1.6 6.4 0.00 0.00 0.00 43 1013.7
20260508041305 19 335 1.6 6.4 0.00 0.00 0.00 43 1013.7
20260508041205 19 333 1.6 6.4 0.00 0.00 0.00 43 1013.9
20260508041121 19 327 1.6 6.4 0.00 0.00 0.00 43 1013.9
20260508041105 19 325 1.6 4.8 0.00 0.00 0.00 43 1013.8
20260508041006 19 322 1.6 9.7 0.00 0.00 0.00 43 1013.9
20260508040805 19 309 3.2 9.7 0.00 0.00 0.00 43 1013.8
20260508040706 19 299 3.2 9.7 0.00 0.00 0.00 42 1013.7
20260508040606 19 292 3.2 9.7 0.00 0.00 0.00 42 1013.9
20260508040506 19 283 3.2 11.3 0.00 0.00 0.00 42 1014.0
20260508040406 19 272 3.2 11.3 0.00 0.00 0.00 42 1014.0
20260508040306 19 275 3.2 11.3 0.00 0.00 0.00 43 1013.8
20260508040121 19 283 3.2 11.3 0.00 0.00 0.00 42 1013.8
20260508040106 19 284 3.2 11.3 0.00 0.00 0.00 42 1013.9
20260508040006 19 284 4.8 11.3 0.00 0.00 0.00 42 1013.8
20260508035819 19 293 4.8 11.3 0.00 0.00 0.00 42 1014.0
20260508035806 19 296 4.8 12.9 0.00 0.00 0.00 42 1014.0
20260508035704 19 299 4.8 12.9 0.00 0.00 0.00 42 1014.0
20260508035506 19 315 4.8 12.9 0.00 0.00 0.00 43 1014.0
20260508035404 19 328 4.8 12.9 0.00 0.00 0.00 42 1014.0
20260508035318 19 328 4.8 12.9 0.00 0.00 0.00 43 1014.0
20260508035307 19 326 4.8 12.9 0.00 0.00 0.00 43 1013.7
20260508035205 19 321 4.8 12.9 0.00 0.00 0.00 43 1014.0
20260508035005 19 322 3.2 12.9 0.00 0.00 0.00 43 1014.1
20260508034905 19 326 3.2 12.9 0.00 0.00 0.00 44 1013.8
20260508034805 19 335 3.2 12.9 0.00 0.00 0.00 44 1013.8
20260508034705 19 344 3.2 9.7 0.00 0.00 0.00 44 1013.9
20260508034605 19 341 3.2 9.7 0.00 0.00 0.00 44 1014.0
20260508034506 19 337 3.2 9.7 0.00 0.00 0.00 44 1014.0
20260508034405 19 331 3.2 9.7 0.00 0.00 0.00 43 1014.0
20260508034305 19 327 1.6 9.7 0.00 0.00 0.00 43 1014.1
20260508034206 19 327 3.2 9.7 0.00 0.00 0.00 43 1014.2
20260508034119 19 334 3.2 9.7 0.00 0.00 0.00 43 1014.2
20260508034105 19 335 3.2 9.7 0.00 0.00 0.00 43 1013.9
20260508034004 19 338 3.2 9.7 0.00 0.00 0.00 43 1014.1
20260508033821 19 331 3.2 9.7 0.00 0.00 0.00 43 1014.0
20260508033804 19 328 3.2 9.7 0.00 0.00 0.00 43 1014.0
20260508033720 18 325 3.2 16.1 0.00 0.00 0.00 43 1014.0
20260508033705 18 324 3.2 16.1 0.00 0.00 0.00 43 1014.0
20260508033519 18 323 3.2 16.1 0.00 0.00 0.00 44 1014.1
20260508033405 18 324 3.2 16.1 0.00 0.00 0.00 43 1014.0
20260508033206 18 325 3.2 16.1 0.00 0.00 0.00 43 1014.0
20260508033121 18 323 3.2 16.1 0.00 0.00 0.00 43 1014.0
20260508033106 18 322 3.2 16.1 0.00 0.00 0.00 43 1014.3
20260508033006 18 320 3.2 16.1 0.00 0.00 0.00 43 1014.2
20260508032806 18 324 3.2 16.1 0.00 0.00 0.00 43 1014.2